Observation data for Umbarger on 12/09/2018      Previous  Date       Current Mesonet Observations  Soil Data  Daily Summary Page  Observations in Plain Language
KUM1 090600Z 24004KT M06/M08 A303 RMK A01 T10571075  RH  087%=      5-min Rain = 0
KUM1 090601Z 24004KT M06/M08 A303 RMK A01 T10571076  RH  087%=      5-min Rain = 0
KUM1 090602Z 24004KT M06/M08 A303 RMK A01 T10571076  RH  087%=      5-min Rain = 0
KUM1 090603Z 24004KT M06/M08 A303 RMK A01 T10571076  RH  087%=      5-min Rain = 0
KUM1 090604Z 24003KT M06/M08 A303 RMK A01 T10571075  RH  087%=      5-min Rain = 0
KUM1 090605Z 24004KT M06/M07 A303 RMK A01 T10571074  RH  088%=      5-min Rain = 0
KUM1 090606Z 24004KT M06/M07 A303 RMK A01 T10561073  RH  088%=      5-min Rain = 0
KUM1 090607Z 24003KT M06/M08 A303 RMK A01 T10571075  RH  087%=      5-min Rain = 0
KUM1 090608Z 24003KT M06/M08 A303 RMK A01 T10581077  RH  087%=      5-min Rain = 0
KUM1 090609Z 24003KT M06/M08 A303 RMK A01 T10591078  RH  087%=      5-min Rain = 0
KUM1 090610Z 24003KT M06/M08 A303 RMK A01 T10601078  RH  087%=      5-min Rain = 0
KUM1 090611Z 24003KT M06/M08 A303 RMK A01 T10601079  RH  087%=      5-min Rain = 0
KUM1 090612Z 24004KT M06/M08 A303 RMK A01 T10621081  RH  086%=      5-min Rain = 0
KUM1 090613Z 24004KT M06/M08 A303 RMK A01 T10631082  RH  086%=      5-min Rain = 0
KUM1 090614Z 24003KT M06/M08 A303 RMK A01 T10631081  RH  087%=      5-min Rain = 0
KUM1 090615Z 24004KT M06/M08 A303 RMK A01 T10621079  RH  088%=      5-min Rain = 0
KUM1 090616Z 24004KT M06/M08 A303 RMK A01 T10621078  RH  088%=      5-min Rain = 0
KUM1 090617Z 24003KT M06/M08 A303 RMK A01 T10621078  RH  088%=      5-min Rain = 0
KUM1 090618Z 25003KT M06/M08 A303 RMK A01 T10631080  RH  088%=      5-min Rain = 0
KUM1 090619Z 25003KT M06/M08 A303 RMK A01 T10641082  RH  087%=      5-min Rain = 0
KUM1 090620Z 25003KT M06/M08 A303 RMK A01 T10631079  RH  088%=      5-min Rain = 0
KUM1 090621Z 25003KT M06/M08 A303 RMK A01 T10631079  RH  088%=      5-min Rain = 0
KUM1 090622Z 25003KT M06/M08 A303 RMK A01 T10621078  RH  088%=      5-min Rain = 0
KUM1 090623Z 25003KT M06/M08 A303 RMK A01 T10631079  RH  088%=      5-min Rain = 0
KUM1 090624Z 25003KT M06/M08 A303 RMK A01 T10641081  RH  088%=      5-min Rain = 0
KUM1 090625Z 25003KT M07/M08 A303 RMK A01 T10651082  RH  088%=      5-min Rain = 0
KUM1 090626Z 25003KT M07/M08 A303 RMK A01 T10661084  RH  088%=      5-min Rain = 0
KUM1 090627Z 25003KT M07/M08 A303 RMK A01 T10671084  RH  088%=      5-min Rain = 0
KUM1 090628Z 25002KT M07/M08 A303 RMK A01 T10661082  RH  089%=      5-min Rain = 0
KUM1 090629Z 25002KT M07/M08 A303 RMK A01 T10661081  RH  089%=      5-min Rain = 0
KUM1 090630Z 25002KT M07/M08 A303 RMK A01 T10671084  RH  088%=      5-min Rain = 0
KUM1 090631Z 25002KT M07/M09 A3029 RMK A01 T10681086  RH  087%=      5-min Rain = 0
KUM1 090632Z 25002KT M07/M09 A3029 RMK A01 T10691086  RH  088%=      5-min Rain = 0
KUM1 090633Z 25002KT M07/M09 A3029 RMK A01 T10681085  RH  088%=      5-min Rain = 0
KUM1 090634Z 25001KT M07/M09 A3029 RMK A01 T10681085  RH  088%=      5-min Rain = 0
KUM1 090635Z 25002KT M07/M09 A3029 RMK A01 T10691086  RH  088%=      5-min Rain = 0
KUM1 090636Z 25002KT M07/M09 A303 RMK A01 T10691086  RH  088%=      5-min Rain = 0
KUM1 090637Z 25003KT M07/M09 A303 RMK A01 T10691086  RH  088%=      5-min Rain = 0
KUM1 090638Z 25003KT M07/M09 A303 RMK A01 T10701088  RH  087%=      5-min Rain = 0
KUM1 090639Z 25002KT M07/M09 A303 RMK A01 T10711088  RH  087%=      5-min Rain = 0
KUM1 090640Z 25002KT M07/M09 A303 RMK A01 T10711087  RH  088%=      5-min Rain = 0
KUM1 090641Z 25001KT M07/M09 A303 RMK A01 T10701086  RH  089%=      5-min Rain = 0
KUM1 090642Z 25001KT M07/M09 A303 RMK A01 T10701086  RH  089%=      5-min Rain = 0
KUM1 090643Z 25001KT M07/M08 A303 RMK A01 T10691083  RH  090%=      5-min Rain = 0
KUM1 090644Z 25002KT M07/M08 A3029 RMK A01 T10671081  RH  090%=      5-min Rain = 0
KUM1 090645Z 25002KT M07/M08 A3029 RMK A01 T10671080  RH  090%=      5-min Rain = 0
KUM1 090646Z 25002KT M07/M08 A3029 RMK A01 T10661080  RH  090%=      5-min Rain = 0
KUM1 090647Z 25002KT M07/M08 A3029 RMK A01 T10661079  RH  090%=      5-min Rain = 0
KUM1 090648Z 25002KT M06/M08 A3029 RMK A01 T10641076  RH  091%=      5-min Rain = 0
KUM1 090649Z 25002KT M06/M07 A3029 RMK A01 T10621073  RH  092%=      5-min Rain = 0
KUM1 090650Z 25002KT M06/M07 A3029 RMK A01 T10611072  RH  092%=      5-min Rain = 0
KUM1 090651Z 25002KT M06/M07 A3029 RMK A01 T10601071  RH  091%=      5-min Rain = 0
KUM1 090652Z 25001KT M06/M07 A3029 RMK A01 T10591072  RH  091%=      5-min Rain = 0
KUM1 090653Z 25001KT M06/M07 A3029 RMK A01 T10601074  RH  090%=      5-min Rain = 0
KUM1 090654Z 25001KT M06/M08 A3029 RMK A01 T10611077  RH  089%=      5-min Rain = 0
KUM1 090655Z 25001KT M06/M08 A3029 RMK A01 T10631080  RH  088%=      5-min Rain = 0
KUM1 090656Z 25001KT M06/M08 A3029 RMK A01 T10641081  RH  088%=      5-min Rain = 0
KUM1 090657Z 25001KT M07/M08 A3029 RMK A01 T10651082  RH  088%=      5-min Rain = 0
KUM1 090658Z 25002KT M07/M08 A3029 RMK A01 T10661083  RH  088%=      5-min Rain = 0
KUM1 090659Z 25002KT M07/M08 A3029 RMK A01 T10671084  RH  088%=      5-min Rain = 0
KUM1 090700Z 25002KT M07/M08 A3029 RMK A01 T10681084  RH  088%=      5-min Rain = 0
KUM1 090701Z 25002KT M07/M09 A3029 RMK A01 T10691085  RH  088%=      5-min Rain = 0
KUM1 090702Z 25002KT M07/M09 A3029 RMK A01 T10691086  RH  088%=      5-min Rain = 0
KUM1 090703Z 25002KT M07/M08 A3029 RMK A01 T10691084  RH  089%=      5-min Rain = 0
KUM1 090704Z 25002KT M07/M08 A3029 RMK A01 T10691083  RH  090%=      5-min Rain = 0
KUM1 090705Z 25002KT M07/M08 A3029 RMK A01 T10691083  RH  090%=      5-min Rain = 0
KUM1 090706Z 25002KT M07/M08 A3029 RMK A01 T10691083  RH  090%=      5-min Rain = 0
KUM1 090707Z 25002KT M07/M08 A3029 RMK A01 T10691083  RH  090%=      5-min Rain = 0
KUM1 090708Z 25002KT M07/M08 A3029 RMK A01 T10681083  RH  090%=      5-min Rain = 0
KUM1 090709Z 25002KT M07/M08 A3029 RMK A01 T10691083  RH  089%=      5-min Rain = 0
KUM1 090710Z 25002KT M07/M09 A3029 RMK A01 T10701085  RH  089%=      5-min Rain = 0
KUM1 090711Z 25002KT M07/M09 A3029 RMK A01 T10711086  RH  089%=      5-min Rain = 0
KUM1 090712Z 25002KT M07/M09 A3029 RMK A01 T10711086  RH  089%=      5-min Rain = 0
KUM1 090713Z 25002KT M07/M09 A3029 RMK A01 T10711085  RH  089%=      5-min Rain = 0
KUM1 090714Z 25002KT M07/M09 A3029 RMK A01 T10711085  RH  090%=      5-min Rain = 0
KUM1 090715Z 25002KT M07/M09 A3029 RMK A01 T10701085  RH  090%=      5-min Rain = 0
KUM1 090716Z 25002KT M07/M09 A3029 RMK A01 T10701085  RH  090%=      5-min Rain = 0
KUM1 090717Z 25001KT M07/M09 A3029 RMK A01 T10701085  RH  089%=      5-min Rain = 0
KUM1 090718Z 25001KT M07/M09 A3029 RMK A01 T10711086  RH  089%=      5-min Rain = 0
KUM1 090719Z 25002KT M07/M09 A3028 RMK A01 T10711087  RH  089%=      5-min Rain = 0
KUM1 090720Z 25002KT M07/M09 A3028 RMK A01 T10711086  RH  089%=      5-min Rain = 0
KUM1 090721Z 25002KT M07/M09 A3028 RMK A01 T10711085  RH  090%=      5-min Rain = 0
KUM1 090722Z 25002KT M07/M09 A3028 RMK A01 T10711085  RH  090%=      5-min Rain = 0
KUM1 090723Z 25002KT M07/M08 A3028 RMK A01 T10701084  RH  090%=      5-min Rain = 0
KUM1 090724Z 25002KT M07/M08 A3028 RMK A01 T10701084  RH  090%=      5-min Rain = 0
KUM1 090725Z 25002KT M07/M08 A3028 RMK A01 T10691083  RH  090%=      5-min Rain = 0
KUM1 090726Z 25001KT M07/M08 A3028 RMK A01 T10681082  RH  090%=      5-min Rain = 0
KUM1 090727Z 25002KT M07/M08 A3028 RMK A01 T10691083  RH  090%=      5-min Rain = 0
KUM1 090728Z 25002KT M07/M08 A3028 RMK A01 T10691084  RH  089%=      5-min Rain = 0
KUM1 090729Z 25001KT M07/M09 A3028 RMK A01 T10701086  RH  088%=      5-min Rain = 0
KUM1 090730Z 25001KT M07/M09 A3028 RMK A01 T10711088  RH  088%=      5-min Rain = 0
KUM1 090731Z 25001KT M07/M09 A3028 RMK A01 T10721089  RH  087%=      5-min Rain = 0
KUM1 090732Z 25001KT M07/M09 A3028 RMK A01 T10721089  RH  088%=      5-min Rain = 0
KUM1 090733Z 25001KT M07/M09 A3028 RMK A01 T10711088  RH  088%=      5-min Rain = 0
KUM1 090734Z 25001KT M07/M09 A3028 RMK A01 T10721089  RH  088%=      5-min Rain = 0
KUM1 090735Z 25001KT M07/M09 A3028 RMK A01 T10721090  RH  088%=      5-min Rain = 0
KUM1 090736Z 25001KT M07/M09 A3028 RMK A01 T10731091  RH  087%=      5-min Rain = 0
KUM1 090737Z 25001KT M07/M09 A3028 RMK A01 T10741093  RH  087%=      5-min Rain = 0
KUM1 090738Z 25001KT M08/M09 A3028 RMK A01 T10751094  RH  087%=      5-min Rain = 0
KUM1 090739Z 30003KT M08/M10 A3028 RMK A01 T10761095  RH  087%=      5-min Rain = 0
KUM1 090740Z 30004KT M08/M10 A3028 RMK A01 T10771096  RH  086%=      5-min Rain = 0
KUM1 090741Z 30004KT M08/M10 A3028 RMK A01 T10781097  RH  086%=      5-min Rain = 0
KUM1 090742Z 31004KT M08/M10 A3028 RMK A01 T10791098  RH  086%=      5-min Rain = 0
KUM1 090743Z 31005KT M08/M10 A3028 RMK A01 T10801099  RH  086%=      5-min Rain = 0
KUM1 090744Z 32005KT M08/M10 A3028 RMK A01 T10811100  RH  086%=      5-min Rain = 0
KUM1 090745Z 32005KT M08/M10 A3028 RMK A01 T10821100  RH  087%=      5-min Rain = 0
KUM1 090746Z 32005KT M08/M10 A3028 RMK A01 T10821101  RH  087%=      5-min Rain = 0
KUM1 090747Z 32005KT M08/M10 A3028 RMK A01 T10821100  RH  087%=      5-min Rain = 0
KUM1 090748Z 32005KT M08/M10 A3028 RMK A01 T10831100  RH  088%=      5-min Rain = 0
KUM1 090749Z 32005KT M08/M10 A3028 RMK A01 T10831099  RH  088%=      5-min Rain = 0
KUM1 090750Z 32005KT M08/M10 A3028 RMK A01 T10821098  RH  089%=      5-min Rain = 0
KUM1 090751Z 32005KT M08/M10 A3028 RMK A01 T10821097  RH  089%=      5-min Rain = 0
KUM1 090752Z 32005KT M08/M10 A3028 RMK A01 T10821096  RH  089%=      5-min Rain = 0
KUM1 090753Z 32005KT M08/M10 A3028 RMK A01 T10811095  RH  090%=      5-min Rain = 0
KUM1 090754Z 31005KT M08/M10 A3028 RMK A01 T10811095  RH  090%=      5-min Rain = 0
KUM1 090755Z 31005KT M08/M10 A3029 RMK A01 T10811095  RH  090%=      5-min Rain = 0
KUM1 090756Z 31005KT M08/M09 A3029 RMK A01 T10801094  RH  089%=      5-min Rain = 0
KUM1 090757Z 31005KT M08/M10 A3029 RMK A01 T10801095  RH  089%=      5-min Rain = 0
KUM1 090758Z 31005KT M08/M10 A3029 RMK A01 T10811096  RH  089%=      5-min Rain = 0
KUM1 090759Z 31005KT M08/M10 A3029 RMK A01 T10811097  RH  089%=      5-min Rain = 0
KUM1 090800Z 31005KT M08/M10 A3029 RMK A01 T10821097  RH  089%=      5-min Rain = 0
KUM1 090801Z 31005KT M08/M10 A3029 RMK A01 T10821098  RH  089%=      5-min Rain = 0
KUM1 090802Z 31005KT M08/M10 A3029 RMK A01 T10821097  RH  089%=      5-min Rain = 0
KUM1 090803Z 31005KT M08/M10 A3029 RMK A01 T10821097  RH  089%=      5-min Rain = 0
KUM1 090804Z 31006KT M08/M10 A3029 RMK A01 T10821098  RH  089%=      5-min Rain = 0
KUM1 090805Z 31006KT M08/M10 A3029 RMK A01 T10831098  RH  089%=      5-min Rain = 0
KUM1 090806Z 31006KT M08/M10 A3029 RMK A01 T10831099  RH  089%=      5-min Rain = 0
KUM1 090807Z 31006KT M08/M10 A3029 RMK A01 T10841100  RH  089%=      5-min Rain = 0
KUM1 090808Z 31006KT M09/M10 A3029 RMK A01 T10851101  RH  089%=      5-min Rain = 0
KUM1 090809Z 31005KT M09/M10 A3029 RMK A01 T10861101  RH  088%=      5-min Rain = 0
KUM1 090810Z 31005KT M09/M10 A3029 RMK A01 T10861102  RH  088%=      5-min Rain = 0
KUM1 090811Z 31005KT M09/M10 A3029 RMK A01 T10871103  RH  088%=      5-min Rain = 0
KUM1 090812Z 31005KT M09/M10 A3029 RMK A01 T10871102  RH  089%=      5-min Rain = 0
KUM1 090813Z 31005KT M09/M10 A3029 RMK A01 T10871102  RH  089%=      5-min Rain = 0
KUM1 090814Z 31004KT M09/M10 A3029 RMK A01 T10861100  RH  089%=      5-min Rain = 0
KUM1 090815Z 31004KT M09/M10 A3029 RMK A01 T10851099  RH  090%=      5-min Rain = 0
KUM1 090816Z 31003KT M08/M10 A3029 RMK A01 T10841098  RH  090%=      5-min Rain = 0
KUM1 090817Z 31004KT M08/M10 A3029 RMK A01 T10831096  RH  090%=      5-min Rain = 0
KUM1 090818Z 31004KT M08/M10 A3029 RMK A01 T10821096  RH  090%=      5-min Rain = 0
KUM1 090819Z 31004KT M08/M10 A3029 RMK A01 T10811095  RH  090%=      5-min Rain = 0
KUM1 090820Z 31004KT M08/M10 A3029 RMK A01 T10811096  RH  090%=      5-min Rain = 0
KUM1 090821Z 31004KT M08/M10 A3029 RMK A01 T10811096  RH  089%=      5-min Rain = 0
KUM1 090822Z 31004KT M08/M10 A3029 RMK A01 T10811095  RH  089%=      5-min Rain = 0
KUM1 090823Z 32004KT M08/M10 A3029 RMK A01 T10801095  RH  089%=      5-min Rain = 0
KUM1 090824Z 32004KT M08/M10 A3029 RMK A01 T10811096  RH  089%=      5-min Rain = 0
KUM1 090825Z 32004KT M08/M10 A3029 RMK A01 T10811098  RH  088%=      5-min Rain = 0
KUM1 090826Z 32004KT M08/M10 A3029 RMK A01 T10821099  RH  088%=      5-min Rain = 0
KUM1 090827Z 32005KT M08/M10 A3029 RMK A01 T10831100  RH  088%=      5-min Rain = 0
KUM1 090828Z 32005KT M08/M10 A3029 RMK A01 T10831099  RH  088%=      5-min Rain = 0
KUM1 090829Z 32005KT M08/M10 A3029 RMK A01 T10831098  RH  088%=      5-min Rain = 0
KUM1 090830Z 32005KT M08/M10 A3029 RMK A01 T10821098  RH  089%=      5-min Rain = 0
KUM1 090831Z 32005KT M08/M10 A3029 RMK A01 T10821098  RH  089%=      5-min Rain = 0
KUM1 090832Z 32005KT M08/M10 A3029 RMK A01 T10821098  RH  088%=      5-min Rain = 0
KUM1 090833Z 32005KT M08/M10 A3029 RMK A01 T10831099  RH  088%=      5-min Rain = 0
KUM1 090834Z 32005KT M08/M10 A3029 RMK A01 T10831099  RH  088%=      5-min Rain = 0
KUM1 090835Z 32005KT M08/M10 A3029 RMK A01 T10841101  RH  088%=      5-min Rain = 0
KUM1 090836Z 32005KT M09/M10 A3029 RMK A01 T10851102  RH  088%=      5-min Rain = 0
KUM1 090837Z 32006KT M09/M10 A3029 RMK A01 T10861103  RH  087%=      5-min Rain = 0
KUM1 090838Z 32006KT M09/M10 A3029 RMK A01 T10861103  RH  088%=      5-min Rain = 0
KUM1 090839Z 32006KT M09/M10 A3029 RMK A01 T10861103  RH  088%=      5-min Rain = 0
KUM1 090840Z 32005KT M09/M10 A3029 RMK A01 T10861102  RH  088%=      5-min Rain = 0
KUM1 090841Z 32005KT M09/M10 A3029 RMK A01 T10861102  RH  089%=      5-min Rain = 0
KUM1 090842Z 32005KT M09/M10 A3029 RMK A01 T10861101  RH  089%=      5-min Rain = 0
KUM1 090843Z 32005KT M09/M10 A3029 RMK A01 T10861100  RH  089%=      5-min Rain = 0
KUM1 090844Z 32005KT M09/M10 A3029 RMK A01 T10851100  RH  089%=      5-min Rain = 0
KUM1 090845Z 32004KT M09/M10 A3029 RMK A01 T10851099  RH  089%=      5-min Rain = 0
KUM1 090846Z 32005KT M08/M10 A3029 RMK A01 T10841099  RH  089%=      5-min Rain = 0
KUM1 090847Z 33005KT M09/M10 A3029 RMK A01 T10851099  RH  089%=      5-min Rain = 0
KUM1 090848Z 33006KT M08/M10 A3029 RMK A01 T10841099  RH  089%=      5-min Rain = 0
KUM1 090849Z 33006KT M08/M10 A3029 RMK A01 T10841099  RH  089%=      5-min Rain = 0
KUM1 090850Z 33006KT M09/M10 A3029 RMK A01 T10851100  RH  089%=      5-min Rain = 0
KUM1 090851Z 33005KT M09/M10 A3029 RMK A01 T10851101  RH  088%=      5-min Rain = 0
KUM1 090852Z 33005KT M09/M10 A3029 RMK A01 T10861102  RH  088%=      5-min Rain = 0
KUM1 090853Z 33006KT M09/M10 A3029 RMK A01 T10861102  RH  088%=      5-min Rain = 0
KUM1 090854Z 33006KT M09/M10 A3029 RMK A01 T10861102  RH  088%=      5-min Rain = 0
KUM1 090855Z 33007KT M09/M10 A3029 RMK A01 T10861102  RH  088%=      5-min Rain = 0
KUM1 090856Z 33007KT M09/M10 A3029 RMK A01 T10861102  RH  088%=      5-min Rain = 0
KUM1 090857Z 33006KT M09/M10 A3029 RMK A01 T10851100  RH  089%=      5-min Rain = 0
KUM1 090858Z 33006KT M08/M10 A3029 RMK A01 T10841099  RH  089%=      5-min Rain = 0
KUM1 090859Z 33007KT M08/M10 A3029 RMK A01 T10831098  RH  089%=      5-min Rain = 0
KUM1 090900Z 33007KT M08/M10 A3029 RMK A01 T10831097  RH  089%=      5-min Rain = 0
KUM1 090901Z 33007KT M08/M10 A3029 RMK A01 T10831098  RH  089%=      5-min Rain = 0
KUM1 090902Z 32007KT M08/M10 A3029 RMK A01 T10831098  RH  089%=      5-min Rain = 0
KUM1 090903Z 32007KT M08/M10 A3029 RMK A01 T10831099  RH  088%=      5-min Rain = 0
KUM1 090904Z 32007KT M08/M10 A3029 RMK A01 T10841100  RH  088%=      5-min Rain = 0
KUM1 090905Z 32007KT M08/M10 A3029 RMK A01 T10841100  RH  088%=      5-min Rain = 0
KUM1 090906Z 32007KT M08/M10 A3029 RMK A01 T10841100  RH  088%=      5-min Rain = 0
KUM1 090907Z 32006KT M08/M10 A3029 RMK A01 T10841100  RH  088%=      5-min Rain = 0
KUM1 090908Z 32006KT M08/M10 A3029 RMK A01 T10841100  RH  088%=      5-min Rain = 0
KUM1 090909Z 32006KT M08/M10 A3029 RMK A01 T10841100  RH  088%=      5-min Rain = 0
KUM1 090910Z 32005KT M08/M10 A3029 RMK A01 T10841100  RH  089%=      5-min Rain = 0
KUM1 090911Z 32005KT M08/M10 A3029 RMK A01 T10841100  RH  089%=      5-min Rain = 0
KUM1 090912Z 32005KT M08/M10 A3029 RMK A01 T10841100  RH  088%=      5-min Rain = 0
KUM1 090913Z 32004KT M09/M10 A3029 RMK A01 T10851101  RH  088%=      5-min Rain = 0
KUM1 090914Z 32004KT M09/M10 A3029 RMK A01 T10851101  RH  088%=      5-min Rain = 0
KUM1 090915Z 32005KT M09/M10 A3029 RMK A01 T10851101  RH  088%=      5-min Rain = 0
KUM1 090916Z 32004KT M09/M10 A3029 RMK A01 T10861102  RH  088%=      5-min Rain = 0
KUM1 090917Z 32004KT M09/M10 A3029 RMK A01 T10851102  RH  088%=      5-min Rain = 0
KUM1 090918Z 32004KT M09/M10 A3029 RMK A01 T10861102  RH  088%=      5-min Rain = 0
KUM1 090919Z 32004KT M09/M10 A3029 RMK A01 T10861103  RH  088%=      5-min Rain = 0
KUM1 090920Z 32004KT M09/M10 A3029 RMK A01 T10861103  RH  088%=      5-min Rain = 0
KUM1 090921Z 32004KT M09/M10 A3029 RMK A01 T10861103  RH  088%=      5-min Rain = 0
KUM1 090922Z 32004KT M09/M10 A3029 RMK A01 T10871103  RH  088%=      5-min Rain = 0
KUM1 090923Z 32004KT M09/M10 A3029 RMK A01 T10861102  RH  089%=      5-min Rain = 0
KUM1 090924Z 32004KT M09/M10 A3029 RMK A01 T10861101  RH  089%=      5-min Rain = 0
KUM1 090925Z 32004KT M09/M10 A3029 RMK A01 T10861101  RH  089%=      5-min Rain = 0
KUM1 090926Z 32004KT M09/M10 A3029 RMK A01 T10851100  RH  089%=      5-min Rain = 0
KUM1 090927Z 32004KT M08/M10 A3029 RMK A01 T10841099  RH  089%=      5-min Rain = 0
KUM1 090928Z 32004KT M08/M10 A3029 RMK A01 T10841099  RH  089%=      5-min Rain = 0
KUM1 090929Z 32004KT M08/M10 A3029 RMK A01 T10841098  RH  089%=      5-min Rain = 0
KUM1 090930Z 32005KT M08/M10 A3029 RMK A01 T10841099  RH  089%=      5-min Rain = 0
KUM1 090931Z 32005KT M08/M10 A3029 RMK A01 T10841099  RH  089%=      5-min Rain = 0
KUM1 090932Z 32004KT M08/M10 A3029 RMK A01 T10831099  RH  089%=      5-min Rain = 0
KUM1 090933Z 31004KT M08/M10 A3029 RMK A01 T10831098  RH  089%=      5-min Rain = 0
KUM1 090934Z 31005KT M08/M10 A3029 RMK A01 T10821097  RH  089%=      5-min Rain = 0
KUM1 090935Z 31005KT M08/M10 A3029 RMK A01 T10821097  RH  089%=      5-min Rain = 0
KUM1 090936Z 31005KT M08/M10 A3029 RMK A01 T10821097  RH  089%=      5-min Rain = 0
KUM1 090937Z 31005KT M08/M10 A3029 RMK A01 T10811096  RH  089%=      5-min Rain = 0
KUM1 090938Z 31005KT M08/M10 A3029 RMK A01 T10801095  RH  089%=      5-min Rain = 0
KUM1 090939Z 31006KT M08/M10 A3029 RMK A01 T10801095  RH  089%=      5-min Rain = 0
KUM1 090940Z 31006KT M08/M09 A3029 RMK A01 T10791094  RH  089%=      5-min Rain = 0
KUM1 090941Z 31006KT M08/M09 A3029 RMK A01 T10791094  RH  089%=      5-min Rain = 0
KUM1 090942Z 31006KT M08/M09 A3029 RMK A01 T10791094  RH  089%=      5-min Rain = 0
KUM1 090943Z 32006KT M08/M09 A3029 RMK A01 T10781093  RH  089%=      5-min Rain = 0
KUM1 090944Z 32006KT M08/M09 A3029 RMK A01 T10781093  RH  089%=      5-min Rain = 0
KUM1 090945Z 32006KT M08/M09 A3029 RMK A01 T10771092  RH  089%=      5-min Rain = 0
KUM1 090946Z 32006KT M08/M09 A3029 RMK A01 T10771092  RH  089%=      5-min Rain = 0
KUM1 090947Z 32006KT M08/M09 A3029 RMK A01 T10771092  RH  089%=      5-min Rain = 0
KUM1 090948Z 32006KT M08/M09 A3029 RMK A01 T10771092  RH  089%=      5-min Rain = 0
KUM1 090949Z 32006KT M08/M09 A3029 RMK A01 T10771093  RH  089%=      5-min Rain = 0
KUM1 090950Z 32005KT M08/M09 A3029 RMK A01 T10771092  RH  089%=      5-min Rain = 0
KUM1 090951Z 32005KT M08/M09 A3029 RMK A01 T10771093  RH  088%=      5-min Rain = 0
KUM1 090952Z 32005KT M08/M09 A3029 RMK A01 T10771093  RH  088%=      5-min Rain = 0
KUM1 090953Z 32005KT M08/M09 A3029 RMK A01 T10771093  RH  088%=      5-min Rain = 0
KUM1 090954Z 32005KT M08/M09 A3029 RMK A01 T10781094  RH  088%=      5-min Rain = 0
KUM1 090955Z 32005KT M08/M09 A3029 RMK A01 T10781094  RH  088%=      5-min Rain = 0
KUM1 090956Z 32005KT M08/M09 A3029 RMK A01 T10781093  RH  088%=      5-min Rain = 0
KUM1 090957Z 32004KT M08/M09 A3029 RMK A01 T10771093  RH  089%=      5-min Rain = 0
KUM1 090958Z 32005KT M08/M09 A3029 RMK A01 T10781093  RH  089%=      5-min Rain = 0
KUM1 090959Z 32005KT M08/M09 A3029 RMK A01 T10771093  RH  089%=      5-min Rain = 0
KUM1 091000Z 32004KT M08/M09 A3029 RMK A01 T10771093  RH  089%=      5-min Rain = 0
KUM1 091001Z 32005KT M08/M09 A3029 RMK A01 T10771092  RH  089%=      5-min Rain = 0
KUM1 091002Z 32004KT M08/M09 A3029 RMK A01 T10771092  RH  089%=      5-min Rain = 0
KUM1 091003Z 32004KT M08/M09 A3029 RMK A01 T10771092  RH  089%=      5-min Rain = 0
KUM1 091004Z 32005KT M08/M09 A3029 RMK A01 T10771092  RH  089%=      5-min Rain = 0
KUM1 091005Z 31005KT M08/M09 A3029 RMK A01 T10771092  RH  089%=      5-min Rain = 0
KUM1 091006Z 31005KT M08/M09 A3029 RMK A01 T10771093  RH  089%=      5-min Rain = 0
KUM1 091007Z 31005KT M08/M09 A3029 RMK A01 T10771092  RH  089%=      5-min Rain = 0
KUM1 091008Z 31006KT M08/M09 A3029 RMK A01 T10761092  RH  089%=      5-min Rain = 0
KUM1 091009Z 31006KT M08/M09 A3029 RMK A01 T10761091  RH  089%=      5-min Rain = 0
KUM1 091010Z 32006KT M08/M09 A3029 RMK A01 T10751090  RH  089%=      5-min Rain = 0
KUM1 091011Z 32007KT M08/M09 A3029 RMK A01 T10751089  RH  089%=      5-min Rain = 0
KUM1 091012Z 32007KT M07/M09 A3029 RMK A01 T10741089  RH  089%=      5-min Rain = 0
KUM1 091013Z 32006KT M07/M09 A3029 RMK A01 T10731088  RH  089%=      5-min Rain = 0
KUM1 091014Z 32006KT M07/M09 A3029 RMK A01 T10731088  RH  089%=      5-min Rain = 0
KUM1 091015Z 32006KT M07/M09 A3029 RMK A01 T10731088  RH  089%=      5-min Rain = 0
KUM1 091016Z 32006KT M07/M09 A3029 RMK A01 T10731087  RH  089%=      5-min Rain = 0
KUM1 091017Z 32006KT M07/M09 A3029 RMK A01 T10721087  RH  089%=      5-min Rain = 0
KUM1 091018Z 32006KT M07/M09 A3029 RMK A01 T10721087  RH  089%=      5-min Rain = 0
KUM1 091019Z 32006KT M07/M09 A3029 RMK A01 T10721086  RH  089%=      5-min Rain = 0
KUM1 091020Z 31006KT M07/M09 A3029 RMK A01 T10711085  RH  090%=      5-min Rain = 0
KUM1 091021Z 31005KT M07/M08 A3029 RMK A01 T10701084  RH  090%=      5-min Rain = 0
KUM1 091022Z 31004KT M07/M08 A3029 RMK A01 T10701084  RH  090%=      5-min Rain = 0
KUM1 091023Z 31004KT M07/M08 A3029 RMK A01 T10691083  RH  090%=      5-min Rain = 0
KUM1 091024Z 31004KT M07/M08 A3029 RMK A01 T10691083  RH  090%=      5-min Rain = 0
KUM1 091025Z 31004KT M07/M08 A3029 RMK A01 T10691082  RH  090%=      5-min Rain = 0
KUM1 091026Z 31005KT M07/M08 A3029 RMK A01 T10681082  RH  090%=      5-min Rain = 0
KUM1 091027Z 31004KT M07/M08 A3029 RMK A01 T10681082  RH  090%=      5-min Rain = 0
KUM1 091028Z 32004KT M07/M08 A3029 RMK A01 T10681082  RH  090%=      5-min Rain = 0
KUM1 091029Z 32004KT M07/M08 A3029 RMK A01 T10681082  RH  090%=      5-min Rain = 0
KUM1 091030Z 32004KT M07/M08 A3029 RMK A01 T10681083  RH  089%=      5-min Rain = 0
KUM1 091031Z 32004KT M07/M08 A3029 RMK A01 T10681083  RH  089%=      5-min Rain = 0
KUM1 091032Z 32004KT M07/M08 A3029 RMK A01 T10681083  RH  089%=      5-min Rain = 0
KUM1 091033Z 32004KT M07/M08 A3029 RMK A01 T10681083  RH  089%=      5-min Rain = 0
KUM1 091034Z 32004KT M07/M08 A3029 RMK A01 T10681083  RH  089%=      5-min Rain = 0
KUM1 091035Z 32004KT M07/M08 A3029 RMK A01 T10681083  RH  089%=      5-min Rain = 0
KUM1 091036Z 32004KT M07/M08 A3029 RMK A01 T10681083  RH  089%=      5-min Rain = 0
KUM1 091037Z 32004KT M07/M08 A3029 RMK A01 T10681083  RH  089%=      5-min Rain = 0
KUM1 091038Z 32004KT M07/M08 A3029 RMK A01 T10691084  RH  089%=      5-min Rain = 0
KUM1 091039Z 32004KT M07/M09 A3029 RMK A01 T10691085  RH  089%=      5-min Rain = 0
KUM1 091040Z 32004KT M07/M09 A3029 RMK A01 T10701086  RH  089%=      5-min Rain = 0
KUM1 091041Z 32005KT M07/M09 A3029 RMK A01 T10701086  RH  089%=      5-min Rain = 0
KUM1 091042Z 32005KT M07/M09 A3029 RMK A01 T10711087  RH  089%=      5-min Rain = 0
KUM1 091043Z 32005KT M07/M09 A3029 RMK A01 T10721087  RH  089%=      5-min Rain = 0
KUM1 091044Z 32004KT M07/M09 A3029 RMK A01 T10721087  RH  089%=      5-min Rain = 0
KUM1 091045Z 32004KT M07/M09 A3029 RMK A01 T10721086  RH  089%=      5-min Rain = 0
KUM1 091046Z 32005KT M07/M09 A3029 RMK A01 T10721087  RH  089%=      5-min Rain = 0
KUM1 091047Z 31005KT M07/M09 A3029 RMK A01 T10721086  RH  089%=      5-min Rain = 0
KUM1 091048Z 31004KT M07/M09 A3029 RMK A01 T10721087  RH  089%=      5-min Rain = 0
KUM1 091049Z 32004KT M07/M09 A3029 RMK A01 T10721087  RH  089%=      5-min Rain = 0
KUM1 091050Z 32004KT M07/M09 A3029 RMK A01 T10731087  RH  089%=      5-min Rain = 0
KUM1 091051Z 32004KT M07/M09 A3029 RMK A01 T10721087  RH  089%=      5-min Rain = 0
KUM1 091052Z 32005KT M07/M09 A3029 RMK A01 T10731087  RH  089%=      5-min Rain = 0
KUM1 091053Z 33006KT M07/M09 A3029 RMK A01 T10731087  RH  089%=      5-min Rain = 0
KUM1 091054Z 33006KT M07/M09 A3029 RMK A01 T10731087  RH  089%=      5-min Rain = 0
KUM1 091055Z 33006KT M07/M09 A3029 RMK A01 T10721087  RH  089%=      5-min Rain = 0
KUM1 091056Z 33006KT M07/M09 A3029 RMK A01 T10711085  RH  090%=      5-min Rain = 0
KUM1 091057Z 33005KT M07/M08 A3029 RMK A01 T10691083  RH  090%=      5-min Rain = 0
KUM1 091058Z 33005KT M07/M08 A3029 RMK A01 T10671080  RH  090%=      5-min Rain = 0
KUM1 091059Z 33005KT M07/M08 A3029 RMK A01 T10661080  RH  090%=      5-min Rain = 0
KUM1 091100Z 33005KT M07/M08 A3029 RMK A01 T10661080  RH  089%=      5-min Rain = 0
KUM1 091101Z 33005KT M07/M08 A3029 RMK A01 T10651081  RH  089%=      5-min Rain = 0
KUM1 091102Z 33005KT M07/M08 A3029 RMK A01 T10651081  RH  089%=      5-min Rain = 0
KUM1 091103Z 33004KT M07/M08 A3029 RMK A01 T10651081  RH  089%=      5-min Rain = 0
KUM1 091104Z 33004KT M07/M08 A3029 RMK A01 T10651081  RH  089%=      5-min Rain = 0
KUM1 091105Z 33003KT M07/M08 A3029 RMK A01 T10651081  RH  089%=      5-min Rain = 0
KUM1 091106Z 33002KT M06/M08 A3029 RMK A01 T10641080  RH  089%=      5-min Rain = 0
KUM1 091107Z 33002KT M06/M08 A3029 RMK A01 T10641080  RH  089%=      5-min Rain = 0
KUM1 091108Z 33003KT M06/M08 A3029 RMK A01 T10641079  RH  089%=      5-min Rain = 0
KUM1 091109Z 33003KT M06/M08 A3029 RMK A01 T10641079  RH  089%=      5-min Rain = 0
KUM1 091110Z 33004KT M06/M08 A3029 RMK A01 T10631079  RH  089%=      5-min Rain = 0
KUM1 091111Z 33004KT M06/M08 A3029 RMK A01 T10621078  RH  089%=      5-min Rain = 0
KUM1 091112Z 33004KT M06/M08 A3028 RMK A01 T10621078  RH  089%=      5-min Rain = 0
KUM1 091113Z 33004KT M06/M08 A3028 RMK A01 T10611077  RH  088%=      5-min Rain = 0
KUM1 091114Z 33005KT M06/M08 A3029 RMK A01 T10611077  RH  088%=      5-min Rain = 0
KUM1 091115Z 33005KT M06/M08 A3029 RMK A01 T10611078  RH  088%=      5-min Rain = 0
KUM1 091116Z 33004KT M06/M08 A3028 RMK A01 T10611079  RH  087%=      5-min Rain = 0
KUM1 091117Z 33004KT M06/M08 A3028 RMK A01 T10631081  RH  087%=      5-min Rain = 0
KUM1 091118Z 33004KT M06/M08 A3028 RMK A01 T10631082  RH  087%=      5-min Rain = 0
KUM1 091119Z 33005KT M06/M08 A3028 RMK A01 T10641083  RH  087%=      5-min Rain = 0
KUM1 091120Z 33005KT M06/M08 A3028 RMK A01 T10641082  RH  087%=      5-min Rain = 0
KUM1 091121Z 33005KT M06/M08 A3029 RMK A01 T10641082  RH  087%=      5-min Rain = 0
KUM1 091122Z 33005KT M07/M08 A3029 RMK A01 T10651082  RH  087%=      5-min Rain = 0
KUM1 091123Z 33005KT M07/M08 A3029 RMK A01 T10661083  RH  087%=      5-min Rain = 0
KUM1 091124Z 33005KT M07/M08 A3029 RMK A01 T10661084  RH  087%=      5-min Rain = 0
KUM1 091125Z 33005KT M07/M09 A3029 RMK A01 T10671085  RH  087%=      5-min Rain = 0
KUM1 091126Z 33004KT M07/M09 A3029 RMK A01 T10681085  RH  087%=      5-min Rain = 0
KUM1 091127Z 33005KT M07/M08 A3029 RMK A01 T10671084  RH  088%=      5-min Rain = 0
KUM1 091128Z 33005KT M07/M09 A3029 RMK A01 T10681085  RH  088%=      5-min Rain = 0
KUM1 091129Z 33005KT M07/M09 A3029 RMK A01 T10681085  RH  088%=      5-min Rain = 0
KUM1 091130Z 33005KT M07/M09 A3029 RMK A01 T10681085  RH  088%=      5-min Rain = 0
KUM1 091131Z 33005KT M07/M09 A3029 RMK A01 T10691087  RH  088%=      5-min Rain = 0
KUM1 091132Z 32005KT M07/M09 A3029 RMK A01 T10701087  RH  088%=      5-min Rain = 0
KUM1 091133Z 32005KT M07/M09 A3029 RMK A01 T10711088  RH  088%=      5-min Rain = 0
KUM1 091134Z 32005KT M07/M09 A3029 RMK A01 T10711089  RH  088%=      5-min Rain = 0
KUM1 091135Z 32005KT M07/M09 A3029 RMK A01 T10711088  RH  088%=      5-min Rain = 0
KUM1 091136Z 32004KT M07/M09 A3029 RMK A01 T10711087  RH  088%=      5-min Rain = 0
KUM1 091137Z 32004KT M07/M09 A3029 RMK A01 T10711087  RH  089%=      5-min Rain = 0
KUM1 091138Z 32004KT M07/M09 A3029 RMK A01 T10721087  RH  089%=      5-min Rain = 0
KUM1 091139Z 32004KT M07/M09 A3029 RMK A01 T10721087  RH  089%=      5-min Rain = 0
KUM1 091140Z 31004KT M07/M09 A3029 RMK A01 T10721087  RH  089%=      5-min Rain = 0
KUM1 091141Z 31004KT M07/M09 A3029 RMK A01 T10721087  RH  089%=      5-min Rain = 0
KUM1 091142Z 32004KT M07/M09 A3029 RMK A01 T10721087  RH  089%=      5-min Rain = 0
KUM1 091143Z 32004KT M07/M09 A3029 RMK A01 T10721087  RH  089%=      5-min Rain = 0
KUM1 091144Z 32004KT M07/M09 A3029 RMK A01 T10721087  RH  089%=      5-min Rain = 0
KUM1 091145Z 32004KT M07/M09 A3029 RMK A01 T10721087  RH  089%=      5-min Rain = 0
KUM1 091146Z 32004KT M07/M09 A3029 RMK A01 T10711086  RH  089%=      5-min Rain = 0
KUM1 091147Z 32004KT M07/M08 A3029 RMK A01 T10701084  RH  090%=      5-min Rain = 0
KUM1 091148Z 32004KT M07/M08 A3029 RMK A01 T10691083  RH  090%=      5-min Rain = 0
KUM1 091149Z 32004KT M07/M08 A3029 RMK A01 T10681083  RH  089%=      5-min Rain = 0
KUM1 091150Z 32004KT M07/M08 A3029 RMK A01 T10691084  RH  089%=      5-min Rain = 0
KUM1 091151Z 32004KT M07/M09 A3029 RMK A01 T10691085  RH  089%=      5-min Rain = 0
KUM1 091152Z 32004KT M07/M09 A3029 RMK A01 T10691085  RH  088%=      5-min Rain = 0
KUM1 091153Z 32004KT M07/M09 A3029 RMK A01 T10691085  RH  089%=      5-min Rain = 0
KUM1 091154Z 32004KT M07/M09 A3029 RMK A01 T10691085  RH  089%=      5-min Rain = 0
KUM1 091155Z 32004KT M07/M09 A3029 RMK A01 T10691085  RH  089%=      5-min Rain = 0
KUM1 091156Z 33004KT M07/M09 A3029 RMK A01 T10691085  RH  089%=      5-min Rain = 0
KUM1 091157Z 33004KT M07/M09 A3029 RMK A01 T10701085  RH  089%=      5-min Rain = 0
KUM1 091158Z 33004KT M07/M09 A3029 RMK A01 T10701085  RH  089%=      5-min Rain = 0
KUM1 091159Z 33004KT M07/M09 A3029 RMK A01 T10691085  RH  089%=      5-min Rain = 0
KUM1 091200Z 33004KT M07/M08 A3029 RMK A01 T10681083  RH  089%=      5-min Rain = 0
KUM1 091201Z 33004KT M07/M08 A3029 RMK A01 T10681083  RH  089%=      5-min Rain = 0
KUM1 091202Z 33004KT M07/M08 A3029 RMK A01 T10681084  RH  089%=      5-min Rain = 0
KUM1 091203Z 33004KT M07/M08 A3029 RMK A01 T10681084  RH  089%=      5-min Rain = 0
KUM1 091204Z 33004KT M07/M09 A3029 RMK A01 T10681085  RH  088%=      5-min Rain = 0
KUM1 091205Z 33004KT M07/M08 A3029 RMK A01 T10681084  RH  088%=      5-min Rain = 0
KUM1 091206Z 33004KT M07/M08 A3029 RMK A01 T10681084  RH  089%=      5-min Rain = 0
KUM1 091207Z 33004KT M07/M08 A3029 RMK A01 T10681084  RH  089%=      5-min Rain = 0
KUM1 091208Z 33004KT M07/M08 A3029 RMK A01 T10681084  RH  089%=      5-min Rain = 0
KUM1 091209Z 34004KT M07/M08 A3029 RMK A01 T10681084  RH  089%=      5-min Rain = 0
KUM1 091210Z 34005KT M07/M08 A3029 RMK A01 T10681083  RH  089%=      5-min Rain = 0
KUM1 091211Z 34005KT M07/M08 A303 RMK A01 T10671082  RH  089%=      5-min Rain = 0
KUM1 091212Z 33005KT M07/M08 A303 RMK A01 T10671082  RH  089%=      5-min Rain = 0
KUM1 091213Z 33005KT M07/M08 A303 RMK A01 T10671083  RH  089%=      5-min Rain = 0
KUM1 091214Z 33005KT M07/M08 A303 RMK A01 T10681084  RH  088%=      5-min Rain = 0
KUM1 091215Z 33005KT M07/M08 A303 RMK A01 T10681083  RH  089%=      5-min Rain = 0
KUM1 091216Z 33005KT M07/M08 A303 RMK A01 T10671082  RH  089%=      5-min Rain = 0
KUM1 091217Z 33005KT M07/M08 A303 RMK A01 T10661081  RH  089%=      5-min Rain = 0
KUM1 091218Z 34005KT M07/M08 A303 RMK A01 T10671082  RH  089%=      5-min Rain = 0
KUM1 091219Z 34006KT M07/M08 A303 RMK A01 T10671083  RH  089%=      5-min Rain = 0
KUM1 091220Z 34006KT M07/M08 A303 RMK A01 T10681084  RH  088%=      5-min Rain = 0
KUM1 091221Z 34006KT M07/M08 A303 RMK A01 T10681083  RH  089%=      5-min Rain = 0
KUM1 091222Z 34006KT M07/M08 A3031 RMK A01 T10671082  RH  089%=      5-min Rain = 0
KUM1 091223Z 34006KT M07/M08 A3031 RMK A01 T10661081  RH  089%=      5-min Rain = 0
KUM1 091224Z 34006KT M07/M08 A3031 RMK A01 T10661082  RH  089%=      5-min Rain = 0
KUM1 091225Z 34006KT M07/M08 A3031 RMK A01 T10661082  RH  088%=      5-min Rain = 0
KUM1 091226Z 34006KT M07/M08 A3031 RMK A01 T10671084  RH  088%=      5-min Rain = 0
KUM1 091227Z 34005KT M07/M09 A3031 RMK A01 T10681085  RH  088%=      5-min Rain = 0
KUM1 091228Z 34005KT M07/M09 A3031 RMK A01 T10691086  RH  088%=      5-min Rain = 0
KUM1 091229Z 34004KT M07/M09 A3031 RMK A01 T10691086  RH  088%=      5-min Rain = 0
KUM1 091230Z 34004KT M07/M09 A3031 RMK A01 T10701086  RH  088%=      5-min Rain = 0
KUM1 091231Z 34004KT M07/M09 A3031 RMK A01 T10701086  RH  088%=      5-min Rain = 0
KUM1 091232Z 33003KT M07/M09 A3031 RMK A01 T10691085  RH  089%=      5-min Rain = 0
KUM1 091233Z 33004KT M07/M08 A3031 RMK A01 T10691084  RH  089%=      5-min Rain = 0
KUM1 091234Z 33004KT M07/M08 A3031 RMK A01 T10681083  RH  089%=      5-min Rain = 0
KUM1 091235Z 33004KT M07/M08 A3031 RMK A01 T10671082  RH  089%=      5-min Rain = 0
KUM1 091236Z 33005KT M07/M08 A3031 RMK A01 T10671082  RH  089%=      5-min Rain = 0
KUM1 091237Z 32005KT M07/M08 A3031 RMK A01 T10671082  RH  089%=      5-min Rain = 0
KUM1 091238Z 32005KT M07/M08 A3031 RMK A01 T10671083  RH  089%=      5-min Rain = 0
KUM1 091239Z 33005KT M07/M08 A3031 RMK A01 T10671083  RH  089%=      5-min Rain = 0
KUM1 091240Z 33005KT M07/M08 A3031 RMK A01 T10671083  RH  089%=      5-min Rain = 0
KUM1 091241Z 33005KT M07/M08 A3031 RMK A01 T10671083  RH  088%=      5-min Rain = 0
KUM1 091242Z 33005KT M07/M08 A3031 RMK A01 T10681084  RH  088%=      5-min Rain = 0
KUM1 091243Z 33005KT M07/M09 A3031 RMK A01 T10681085  RH  088%=      5-min Rain = 0
KUM1 091244Z 33005KT M07/M08 A3031 RMK A01 T10681084  RH  088%=      5-min Rain = 0
KUM1 091245Z 33005KT M07/M09 A3031 RMK A01 T10681085  RH  088%=      5-min Rain = 0
KUM1 091246Z 33005KT M07/M09 A3031 RMK A01 T10691085  RH  088%=      5-min Rain = 0
KUM1 091247Z 33005KT M07/M09 A3031 RMK A01 T10691085  RH  088%=      5-min Rain = 0
KUM1 091248Z 33005KT M07/M09 A3031 RMK A01 T10691086  RH  088%=      5-min Rain = 0
KUM1 091249Z 33005KT M07/M09 A3031 RMK A01 T10701086  RH  088%=      5-min Rain = 0
KUM1 091250Z 33005KT M07/M09 A3031 RMK A01 T10701086  RH  088%=      5-min Rain = 0
KUM1 091251Z 33005KT M07/M09 A3031 RMK A01 T10691085  RH  088%=      5-min Rain = 0
KUM1 091252Z 33005KT M07/M09 A3031 RMK A01 T10691085  RH  088%=      5-min Rain = 0
KUM1 091253Z 33004KT M07/M08 A3031 RMK A01 T10681084  RH  088%=      5-min Rain = 0
KUM1 091254Z 33004KT M07/M08 A3031 RMK A01 T10681084  RH  088%=      5-min Rain = 0
KUM1 091255Z 33004KT M07/M08 A3031 RMK A01 T10671083  RH  088%=      5-min Rain = 0
KUM1 091256Z 34004KT M07/M08 A3031 RMK A01 T10661083  RH  088%=      5-min Rain = 0
KUM1 091257Z 34003KT M07/M08 A3031 RMK A01 T10661083  RH  088%=      5-min Rain = 0
KUM1 091258Z 34003KT M07/M08 A3031 RMK A01 T10661083  RH  088%=      5-min Rain = 0
KUM1 091259Z 34003KT M07/M08 A3031 RMK A01 T10661083  RH  088%=      5-min Rain = 0
KUM1 091300Z 34003KT M07/M08 A3031 RMK A01 T10661083  RH  087%=      5-min Rain = 0
KUM1 091301Z 33003KT M07/M08 A3031 RMK A01 T10661083  RH  087%=      5-min Rain = 0
KUM1 091302Z 33003KT M07/M08 A3031 RMK A01 T10651083  RH  087%=      5-min Rain = 0
KUM1 091303Z 33003KT M07/M08 A3031 RMK A01 T10651082  RH  087%=      5-min Rain = 0
KUM1 091304Z 33004KT M06/M08 A3031 RMK A01 T10641082  RH  087%=      5-min Rain = 0
KUM1 091305Z 32003KT M06/M08 A3032 RMK A01 T10641083  RH  087%=      5-min Rain = 0
KUM1 091306Z 32004KT M06/M08 A3032 RMK A01 T10641083  RH  087%=      5-min Rain = 0
KUM1 091307Z 32004KT M07/M09 A3032 RMK A01 T10651085  RH  086%=      5-min Rain = 0
KUM1 091308Z 33004KT M07/M09 A3032 RMK A01 T10661086  RH  086%=      5-min Rain = 0
KUM1 091309Z 33004KT M07/M09 A3032 RMK A01 T10671087  RH  085%=      5-min Rain = 0
KUM1 091310Z 33004KT M07/M09 A3032 RMK A01 T10681088  RH  085%=      5-min Rain = 0
KUM1 091311Z 34005KT M07/M09 A3032 RMK A01 T10681089  RH  085%=      5-min Rain = 0
KUM1 091312Z 34005KT M07/M09 A3032 RMK A01 T10691090  RH  085%=      5-min Rain = 0
KUM1 091313Z 34005KT M07/M09 A3032 RMK A01 T10701090  RH  085%=      5-min Rain = 0
KUM1 091314Z 34005KT M07/M09 A3032 RMK A01 T10701091  RH  085%=      5-min Rain = 0
KUM1 091315Z 34005KT M07/M09 A3032 RMK A01 T10711091  RH  085%=      5-min Rain = 0
KUM1 091316Z 34005KT M07/M09 A3032 RMK A01 T10711091  RH  085%=      5-min Rain = 0
KUM1 091317Z 34005KT M07/M09 A3032 RMK A01 T10711091  RH  086%=      5-min Rain = 0
KUM1 091318Z 33004KT M07/M09 A3032 RMK A01 T10691089  RH  086%=      5-min Rain = 0
KUM1 091319Z 33004KT M07/M09 A3032 RMK A01 T10671086  RH  086%=      5-min Rain = 0
KUM1 091320Z 33004KT M07/M09 A3032 RMK A01 T10661086  RH  086%=      5-min Rain = 0
KUM1 091321Z 33004KT M07/M09 A3032 RMK A01 T10651086  RH  085%=      5-min Rain = 0
KUM1 091322Z 33004KT M07/M09 A3033 RMK A01 T10651086  RH  085%=      5-min Rain = 0
KUM1 091323Z 33004KT M06/M09 A3033 RMK A01 T10641086  RH  085%=      5-min Rain = 0
KUM1 091324Z 34005KT M06/M09 A3033 RMK A01 T10641086  RH  084%=      5-min Rain = 0
KUM1 091325Z 33005KT M06/M09 A3033 RMK A01 T10641086  RH  084%=      5-min Rain = 0
KUM1 091326Z 33005KT M06/M09 A3033 RMK A01 T10641087  RH  084%=      5-min Rain = 0
KUM1 091327Z 33005KT M07/M09 A3033 RMK A01 T10651088  RH  084%=      5-min Rain = 0
KUM1 091328Z 33006KT M07/M09 A3033 RMK A01 T10661089  RH  083%=      5-min Rain = 0
KUM1 091329Z 34006KT M07/M09 A3033 RMK A01 T10671090  RH  084%=      5-min Rain = 0
KUM1 091330Z 34006KT M07/M09 A3033 RMK A01 T10671090  RH  084%=      5-min Rain = 0
KUM1 091331Z 34007KT M07/M09 A3033 RMK A01 T10671089  RH  084%=      5-min Rain = 0
KUM1 091332Z 34007KT M07/M09 A3033 RMK A01 T10661087  RH  085%=      5-min Rain = 0
KUM1 091333Z 34007KT M07/M09 A3033 RMK A01 T10651085  RH  086%=      5-min Rain = 0
KUM1 091334Z 34007KT M06/M08 A3033 RMK A01 T10641084  RH  085%=      5-min Rain = 0
KUM1 091335Z 34007KT M06/M08 A3033 RMK A01 T10631084  RH  085%=      5-min Rain = 0
KUM1 091336Z 34007KT M06/M08 A3033 RMK A01 T10621083  RH  085%=      5-min Rain = 0
KUM1 091337Z 34007KT M06/M08 A3033 RMK A01 T10621083  RH  085%=      5-min Rain = 0
KUM1 091338Z 34007KT M06/M08 A3033 RMK A01 T10611083  RH  085%=      5-min Rain = 0
KUM1 091339Z 34007KT M06/M08 A3033 RMK A01 T10601082  RH  085%=      5-min Rain = 0
KUM1 091340Z 34007KT M06/M08 A3033 RMK A01 T10601083  RH  084%=      5-min Rain = 0
KUM1 091341Z 34007KT M06/M08 A3033 RMK A01 T10601083  RH  084%=      5-min Rain = 0
KUM1 091342Z 34007KT M06/M08 A3033 RMK A01 T10601083  RH  084%=      5-min Rain = 0
KUM1 091343Z 34007KT M06/M08 A3033 RMK A01 T10601083  RH  084%=      5-min Rain = 0
KUM1 091344Z 34007KT M06/M08 A3033 RMK A01 T10601083  RH  084%=      5-min Rain = 0
KUM1 091345Z 34008KT M06/M08 A3033 RMK A01 T10601083  RH  084%=      5-min Rain = 0
KUM1 091346Z 33007KT M06/M08 A3033 RMK A01 T10601083  RH  084%=      5-min Rain = 0
KUM1 091347Z 33007KT M06/M08 A3033 RMK A01 T10601083  RH  084%=      5-min Rain = 0
KUM1 091348Z 33007KT M06/M08 A3033 RMK A01 T10601083  RH  084%=      5-min Rain = 0
KUM1 091349Z 33007KT M06/M08 A3033 RMK A01 T10601083  RH  084%=      5-min Rain = 0
KUM1 091350Z 34007KT M06/M08 A3034 RMK A01 T10601083  RH  084%=      5-min Rain = 0
KUM1 091351Z 34007KT M06/M08 A3034 RMK A01 T10601082  RH  084%=      5-min Rain = 0
KUM1 091352Z 34007KT M06/M08 A3034 RMK A01 T10601083  RH  084%=      5-min Rain = 0
KUM1 091353Z 34006KT M06/M08 A3034 RMK A01 T10601083  RH  084%=      5-min Rain = 0
KUM1 091354Z 33006KT M06/M08 A3034 RMK A01 T10611084  RH  084%=      5-min Rain = 0
KUM1 091355Z 34006KT M06/M09 A3034 RMK A01 T10621085  RH  084%=      5-min Rain = 0
KUM1 091356Z 34006KT M06/M09 A3034 RMK A01 T10621085  RH  084%=      5-min Rain = 0
KUM1 091357Z 34006KT M06/M09 A3034 RMK A01 T10631085  RH  084%=      5-min Rain = 0
KUM1 091358Z 34006KT M06/M09 A3034 RMK A01 T10641086  RH  084%=      5-min Rain = 0
KUM1 091359Z 34006KT M06/M09 A3034 RMK A01 T10641086  RH  085%=      5-min Rain = 0
KUM1 091400Z 34007KT M06/M09 A3034 RMK A01 T10641086  RH  085%=      5-min Rain = 0
KUM1 091401Z 34007KT M06/M09 A3034 RMK A01 T10641086  RH  085%=      5-min Rain = 0
KUM1 091402Z 34007KT M06/M09 A3034 RMK A01 T10641086  RH  085%=      5-min Rain = 0
KUM1 091403Z 33006KT M06/M09 A3034 RMK A01 T10641086  RH  085%=      5-min Rain = 0
KUM1 091404Z 33006KT M06/M09 A3034 RMK A01 T10641086  RH  085%=      5-min Rain = 0
KUM1 091405Z 33006KT M06/M09 A3034 RMK A01 T10641085  RH  085%=      5-min Rain = 0
KUM1 091406Z 33006KT M06/M09 A3034 RMK A01 T10641085  RH  085%=      5-min Rain = 0
KUM1 091407Z 33006KT M06/M09 A3034 RMK A01 T10641085  RH  086%=      5-min Rain = 0
KUM1 091408Z 32006KT M06/M09 A3034 RMK A01 T10641085  RH  086%=      5-min Rain = 0
KUM1 091409Z 32006KT M06/M08 A3034 RMK A01 T10641084  RH  086%=      5-min Rain = 0
KUM1 091410Z 32006KT M06/M08 A3034 RMK A01 T10641083  RH  086%=      5-min Rain = 0
KUM1 091411Z 32006KT M06/M08 A3034 RMK A01 T10631083  RH  086%=      5-min Rain = 0
KUM1 091412Z 32006KT M06/M08 A3034 RMK A01 T10631083  RH  086%=      5-min Rain = 0
KUM1 091413Z 32006KT M06/M08 A3034 RMK A01 T10621083  RH  086%=      5-min Rain = 0
KUM1 091414Z 32006KT M06/M08 A3034 RMK A01 T10621082  RH  086%=      5-min Rain = 0
KUM1 091415Z 32005KT M06/M08 A3034 RMK A01 T10621082  RH  086%=      5-min Rain = 0
KUM1 091416Z 31004KT M06/M08 A3034 RMK A01 T10611082  RH  086%=      5-min Rain = 0
KUM1 091417Z 30004KT M06/M08 A3034 RMK A01 T10621082  RH  086%=      5-min Rain = 0
KUM1 091418Z 30003KT M06/M08 A3034 RMK A01 T10621082  RH  086%=      5-min Rain = 0
KUM1 091419Z 30002KT M06/M08 A3034 RMK A01 T10621082  RH  086%=      5-min Rain = 0
KUM1 091420Z 29002KT M06/M08 A3034 RMK A01 T10621082  RH  086%=      5-min Rain = 0
KUM1 091421Z 29001KT M06/M08 A3034 RMK A01 T10621081  RH  086%=      5-min Rain = 0
KUM1 091422Z 27001KT M06/M08 A3034 RMK A01 T10611080  RH  086%=      5-min Rain = 0
KUM1 091423Z 26001KT M06/M08 A3034 RMK A01 T10601079  RH  086%=      5-min Rain = 0
KUM1 091424Z 26001KT M06/M08 A3034 RMK A01 T10591079  RH  086%=      5-min Rain = 0
KUM1 091425Z 26001KT M06/M08 A3034 RMK A01 T10581078  RH  086%=      5-min Rain = 0
KUM1 091426Z 26000KT M06/M08 A3034 RMK A01 T10571077  RH  086%=      5-min Rain = 0
KUM1 091427Z 26000KT M06/M08 A3034 RMK A01 T10561076  RH  086%=      5-min Rain = 0
KUM1 091428Z 26000KT M06/M08 A3034 RMK A01 T10551075  RH  085%=      5-min Rain = 0
KUM1 091429Z 26000KT M05/M07 A3034 RMK A01 T10531074  RH  085%=      5-min Rain = 0
KUM1 091430Z 29000KT M05/M07 A3034 RMK A01 T10511073  RH  085%=      5-min Rain = 0
KUM1 091431Z 34002KT M05/M07 A3034 RMK A01 T10501072  RH  084%=      5-min Rain = 0
KUM1 091432Z 33002KT M05/M07 A3034 RMK A01 T10491073  RH  083%=      5-min Rain = 0
KUM1 091433Z 33003KT M05/M07 A3034 RMK A01 T10481074  RH  082%=      5-min Rain = 0
KUM1 091434Z 33004KT M05/M07 A3034 RMK A01 T10471074  RH  082%=      5-min Rain = 0
KUM1 091435Z 33004KT M05/M07 A3034 RMK A01 T10461073  RH  081%=      5-min Rain = 0
KUM1 091436Z 33004KT M05/M07 A3034 RMK A01 T10461073  RH  081%=      5-min Rain = 0
KUM1 091437Z 33005KT M05/M07 A3034 RMK A01 T10451072  RH  082%=      5-min Rain = 0
KUM1 091438Z 34005KT M05/M07 A3034 RMK A01 T10451071  RH  082%=      5-min Rain = 0
KUM1 091439Z 33005KT M04/M07 A3034 RMK A01 T10441071  RH  082%=      5-min Rain = 0
KUM1 091440Z 33004KT M04/M07 A3034 RMK A01 T10441071  RH  082%=      5-min Rain = 0
KUM1 091441Z 33004KT M04/M07 A3034 RMK A01 T10431070  RH  081%=      5-min Rain = 0
KUM1 091442Z 33004KT M04/M07 A3034 RMK A01 T10421069  RH  082%=      5-min Rain = 0
KUM1 091443Z 33004KT M04/M07 A3034 RMK A01 T10421068  RH  082%=      5-min Rain = 0
KUM1 091444Z 33004KT M04/M07 A3035 RMK A01 T10411067  RH  082%=      5-min Rain = 0
KUM1 091445Z 32003KT M04/M07 A3035 RMK A01 T10401066  RH  082%=      5-min Rain = 0
KUM1 091446Z 32003KT M04/M07 A3035 RMK A01 T10401066  RH  082%=      5-min Rain = 0
KUM1 091447Z 31003KT M04/M06 A3035 RMK A01 T10391064  RH  083%=      5-min Rain = 0
KUM1 091448Z 31003KT M04/M06 A3035 RMK A01 T10381062  RH  084%=      5-min Rain = 0
KUM1 091449Z 31002KT M04/M06 A3035 RMK A01 T10381062  RH  083%=      5-min Rain = 0
KUM1 091450Z 32003KT M04/M06 A3035 RMK A01 T10381062  RH  083%=      5-min Rain = 0
KUM1 091451Z 31002KT M04/M06 A3035 RMK A01 T10371063  RH  082%=      5-min Rain = 0
KUM1 091452Z 31003KT M04/M06 A3035 RMK A01 T10361061  RH  083%=      5-min Rain = 0
KUM1 091453Z 31002KT M04/M06 A3035 RMK A01 T10351060  RH  083%=      5-min Rain = 0
KUM1 091454Z 31002KT M04/M06 A3035 RMK A01 T10351060  RH  083%=      5-min Rain = 0
KUM1 091455Z 30002KT M03/M06 A3035 RMK A01 T10341058  RH  083%=      5-min Rain = 0
KUM1 091456Z 30002KT M03/M06 A3035 RMK A01 T10331057  RH  083%=      5-min Rain = 0
KUM1 091457Z 30002KT M03/M06 A3035 RMK A01 T10321057  RH  083%=      5-min Rain = 0
KUM1 091458Z 30003KT M03/M06 A3035 RMK A01 T10311057  RH  082%=      5-min Rain = 0
KUM1 091459Z 30003KT M03/M06 A3035 RMK A01 T10311058  RH  081%=      5-min Rain = 0
KUM1 091500Z 30003KT M03/M06 A3035 RMK A01 T10301058  RH  081%=      5-min Rain = 0
KUM1 091501Z 31002KT M03/M06 A3035 RMK A01 T10301057  RH  081%=      5-min Rain = 0
KUM1 091502Z 31003KT M03/M06 A3035 RMK A01 T10291056  RH  082%=      5-min Rain = 0
KUM1 091503Z 31003KT M03/M06 A3035 RMK A01 T10281055  RH  082%=      5-min Rain = 0
KUM1 091504Z 31003KT M03/M06 A3035 RMK A01 T10281057  RH  081%=      5-min Rain = 0
KUM1 091505Z 31004KT M03/M06 A3035 RMK A01 T10281058  RH  079%=      5-min Rain = 0
KUM1 091506Z 31003KT M03/M06 A3035 RMK A01 T10281058  RH  080%=      5-min Rain = 0
KUM1 091507Z 32004KT M03/M06 A3035 RMK A01 T10271056  RH  080%=      5-min Rain = 0
KUM1 091508Z 31003KT M03/M06 A3035 RMK A01 T10261056  RH  080%=      5-min Rain = 0
KUM1 091509Z 32004KT M03/M06 A3035 RMK A01 T10251055  RH  080%=      5-min Rain = 0
KUM1 091510Z 31004KT M03/M05 A3035 RMK A01 T10251054  RH  081%=      5-min Rain = 0
KUM1 091511Z 32004KT M02/M05 A3035 RMK A01 T10231052  RH  081%=      5-min Rain = 0
KUM1 091512Z 32004KT M02/M05 A3035 RMK A01 T10221051  RH  081%=      5-min Rain = 0
KUM1 091513Z 32004KT M02/M05 A3035 RMK A01 T10211051  RH  080%=      5-min Rain = 0
KUM1 091514Z 33004KT M02/M05 A3035 RMK A01 T10211052  RH  079%=      5-min Rain = 0
KUM1 091515Z 33004KT M02/M05 A3035 RMK A01 T10201054  RH  078%=      5-min Rain = 0
KUM1 091516Z 32004KT M02/M05 A3035 RMK A01 T10201054  RH  078%=      5-min Rain = 0
KUM1 091517Z 32003KT M02/M05 A3035 RMK A01 T10201054  RH  077%=      5-min Rain = 0
KUM1 091518Z 32004KT M02/M05 A3035 RMK A01 T10191053  RH  078%=      5-min Rain = 0
KUM1 091519Z 32004KT M02/M05 A3035 RMK A01 T10181054  RH  077%=      5-min Rain = 0
KUM1 091520Z 32003KT M02/M05 A3035 RMK A01 T10181053  RH  077%=      5-min Rain = 0
KUM1 091521Z 32003KT M02/M05 A3035 RMK A01 T10171053  RH  077%=      5-min Rain = 0
KUM1 091522Z 31003KT M02/M05 A3035 RMK A01 T10161051  RH  077%=      5-min Rain = 0
KUM1 091523Z 31004KT M02/M05 A3036 RMK A01 T10151051  RH  077%=      5-min Rain = 0
KUM1 091524Z 30004KT M02/M05 A3036 RMK A01 T10151053  RH  075%=      5-min Rain = 0
KUM1 091525Z 31004KT M02/M05 A3036 RMK A01 T10151053  RH  075%=      5-min Rain = 0
KUM1 091526Z 31004KT M02/M05 A3036 RMK A01 T10151054  RH  074%=      5-min Rain = 0
KUM1 091527Z 31004KT M01/M05 A3036 RMK A01 T10141053  RH  075%=      5-min Rain = 0
KUM1 091528Z 30004KT M01/M05 A3036 RMK A01 T10131051  RH  075%=      5-min Rain = 0
KUM1 091529Z 31004KT M01/M05 A3036 RMK A01 T10121050  RH  075%=      5-min Rain = 0
KUM1 091530Z 30004KT M01/M05 A3036 RMK A01 T10111049  RH  076%=      5-min Rain = 0
KUM1 091531Z 30005KT M01/M05 A3036 RMK A01 T10101047  RH  076%=      5-min Rain = 0
KUM1 091532Z 31005KT M01/M05 A3036 RMK A01 T10101049  RH  074%=      5-min Rain = 0
KUM1 091533Z 30005KT M01/M05 A3036 RMK A01 T10101049  RH  074%=      5-min Rain = 0
KUM1 091534Z 30005KT M01/M05 A3036 RMK A01 T10091049  RH  075%=      5-min Rain = 0
KUM1 091535Z 30004KT M01/M05 A3036 RMK A01 T10091050  RH  074%=      5-min Rain = 0
KUM1 091536Z 29003KT M01/M05 A3036 RMK A01 T10091049  RH  074%=      5-min Rain = 0
KUM1 091537Z 30003KT M01/M05 A3037 RMK A01 T10081047  RH  075%=      5-min Rain = 0
KUM1 091538Z 30005KT M01/M05 A3037 RMK A01 T10071047  RH  074%=      5-min Rain = 0
KUM1 091539Z 30004KT M01/M05 A3037 RMK A01 T10071050  RH  073%=      5-min Rain = 0
KUM1 091540Z 29003KT M01/M05 A3037 RMK A01 T10071048  RH  073%=      5-min Rain = 0
KUM1 091541Z 30005KT M01/M04 A3037 RMK A01 T10051044  RH  075%=      5-min Rain = 0
KUM1 091542Z 31004KT M00/M05 A3037 RMK A01 T10041047  RH  073%=      5-min Rain = 0
KUM1 091543Z 30004KT M00/M05 A3037 RMK A01 T10041050  RH  071%=      5-min Rain = 0
KUM1 091544Z 30003KT M00/M05 A3037 RMK A01 T10041054  RH  069%=      5-min Rain = 0
KUM1 091545Z 29002KT M00/M05 A3037 RMK A01 T10031049  RH  071%=      5-min Rain = 0
KUM1 091546Z 29004KT M00/M04 A3037 RMK A01 T10011044  RH  072%=      5-min Rain = 0
KUM1 091547Z 30004KT 00/05 A3037 RMK A01 T00-00-45  RH  072%=      5-min Rain = 0
KUM1 091548Z 29005KT 00/M05 A3037 RMK A01 T00011045  RH  071%=      5-min Rain = 0
KUM1 091549Z 29006KT 00/M05 A3037 RMK A01 T00011045  RH  071%=      5-min Rain = 0
KUM1 091550Z 31005KT 00/M05 A3037 RMK A01 T00011046  RH  071%=      5-min Rain = 0
KUM1 091551Z 31005KT 00/M05 A3037 RMK A01 T00021046  RH  070%=      5-min Rain = 0
KUM1 091552Z 29005KT 00/M04 A3037 RMK A01 T00031044  RH  071%=      5-min Rain = 0
KUM1 091553Z 29005KT 00/M04 A3037 RMK A01 T00041044  RH  071%=      5-min Rain = 0
KUM1 091554Z 30004KT 00/M05 A3037 RMK A01 T00031045  RH  070%=      5-min Rain = 0
KUM1 091555Z 31005KT 00/M05 A3037 RMK A01 T00041045  RH  070%=      5-min Rain = 0
KUM1 091556Z 30005KT 00/M05 A3037 RMK A01 T00041046  RH  069%=      5-min Rain = 0
KUM1 091557Z 29004KT 01/M05 A3037 RMK A01 T00051045  RH  069%=      5-min Rain = 0
KUM1 091558Z 29005KT 01/M05 A3037 RMK A01 T00061047  RH  068%=      5-min Rain = 0
KUM1 091559Z 29004KT 01/M05 A3037 RMK A01 T00071047  RH  068%=      5-min Rain = 0
KUM1 091600Z 31003KT 01/M05 A3037 RMK A01 T00081046  RH  067%=      5-min Rain = 0
KUM1 091601Z 30002KT 01/M05 A3037 RMK A01 T00091045  RH  067%=      5-min Rain = 0
KUM1 091602Z 29001KT 01/M05 A3037 RMK A01 T00101046  RH  066%=      5-min Rain = 0
KUM1 091603Z 31002KT 01/M05 A3037 RMK A01 T00111046  RH  066%=      5-min Rain = 0
KUM1 091604Z 30003KT 01/M04 A3037 RMK A01 T00121044  RH  066%=      5-min Rain = 0
KUM1 091605Z 30002KT 01/M04 A3037 RMK A01 T00131042  RH  067%=      5-min Rain = 0
KUM1 091606Z 30003KT 01/M04 A3037 RMK A01 T00141042  RH  067%=      5-min Rain = 0
KUM1 091607Z 31003KT 01/M04 A3037 RMK A01 T00141044  RH  065%=      5-min Rain = 0
KUM1 091608Z 31003KT 01/M04 A3037 RMK A01 T00141044  RH  065%=      5-min Rain = 0
KUM1 091609Z 30005KT 02/M04 A3037 RMK A01 T00161042  RH  066%=      5-min Rain = 0
KUM1 091610Z 30005KT 02/M05 A3037 RMK A01 T00161045  RH  064%=      5-min Rain = 0
KUM1 091611Z 30004KT 02/M05 A3037 RMK A01 T00151047  RH  063%=      5-min Rain = 0
KUM1 091612Z 32004KT 01/M05 A3037 RMK A01 T00141048  RH  063%=      5-min Rain = 0
KUM1 091613Z 32005KT 01/M05 A3037 RMK A01 T00141047  RH  064%=      5-min Rain = 0
KUM1 091614Z 31005KT 02/M05 A3037 RMK A01 T00151046  RH  064%=      5-min Rain = 0
KUM1 091615Z 31004KT 02/M05 A3037 RMK A01 T00161046  RH  063%=      5-min Rain = 0
KUM1 091616Z 31004KT 02/M04 A3037 RMK A01 T00161044  RH  064%=      5-min Rain = 0
KUM1 091617Z 31005KT 02/M05 A3037 RMK A01 T00171045  RH  064%=      5-min Rain = 0
KUM1 091618Z 32005KT 02/M04 A3038 RMK A01 T00171043  RH  064%=      5-min Rain = 0
KUM1 091619Z 32005KT 02/M04 A3037 RMK A01 T00181044  RH  064%=      5-min Rain = 0
KUM1 091620Z 32005KT 02/M04 A3038 RMK A01 T00191044  RH  063%=      5-min Rain = 0
KUM1 091621Z 32005KT 02/M04 A3038 RMK A01 T00191044  RH  063%=      5-min Rain = 0
KUM1 091622Z 32005KT 02/M04 A3037 RMK A01 T00191044  RH  063%=      5-min Rain = 0
KUM1 091623Z 31005KT 02/M04 A3037 RMK A01 T00201041  RH  064%=      5-min Rain = 0
KUM1 091624Z 31005KT 02/M04 A3037 RMK A01 T00211037  RH  065%=      5-min Rain = 0
KUM1 091625Z 31005KT 02/M04 A3037 RMK A01 T00221040  RH  063%=      5-min Rain = 0
KUM1 091626Z 31005KT 02/M04 A3037 RMK A01 T00221040  RH  064%=      5-min Rain = 0
KUM1 091627Z 31005KT 02/M04 A3037 RMK A01 T00221039  RH  064%=      5-min Rain = 0
KUM1 091628Z 30006KT 02/M04 A3037 RMK A01 T00221041  RH  063%=      5-min Rain = 0
KUM1 091629Z 30006KT 02/M04 A3037 RMK A01 T00221040  RH  064%=      5-min Rain = 0
KUM1 091630Z 30005KT 02/M04 A3038 RMK A01 T00221041  RH  063%=      5-min Rain = 0
KUM1 091631Z 31004KT 02/M04 A3038 RMK A01 T00221043  RH  062%=      5-min Rain = 0
KUM1 091632Z 30005KT 02/M04 A3038 RMK A01 T00241038  RH  064%=      5-min Rain = 0
KUM1 091633Z 31005KT 03/M04 A3038 RMK A01 T00251038  RH  063%=      5-min Rain = 0
KUM1 091634Z 32003KT 03/M04 A3038 RMK A01 T00251038  RH  063%=      5-min Rain = 0
KUM1 091635Z 29005KT 03/M04 A3037 RMK A01 T00261037  RH  063%=      5-min Rain = 0
KUM1 091636Z 30005KT 03/M04 A3037 RMK A01 T00271037  RH  062%=      5-min Rain = 0
KUM1 091637Z 31004KT 03/M04 A3037 RMK A01 T00281036  RH  063%=      5-min Rain = 0
KUM1 091638Z 31002KT 03/M04 A3037 RMK A01 T00291036  RH  062%=      5-min Rain = 0
KUM1 091639Z 29003KT 03/M04 A3037 RMK A01 T00291039  RH  061%=      5-min Rain = 0
KUM1 091640Z 33002KT 03/M04 A3037 RMK A01 T00291042  RH  059%=      5-min Rain = 0
KUM1 091641Z 34002KT 03/M04 A3037 RMK A01 T00301042  RH  059%=      5-min Rain = 0
KUM1 091642Z 32004KT 03/M04 A3037 RMK A01 T00311039  RH  060%=      5-min Rain = 0
KUM1 091643Z 33003KT 03/M04 A3037 RMK A01 T00321042  RH  058%=      5-min Rain = 0
KUM1 091644Z 34003KT 03/M04 A3037 RMK A01 T00311042  RH  058%=      5-min Rain = 0
KUM1 091645Z 32005KT 03/M04 A3037 RMK A01 T00321041  RH  058%=      5-min Rain = 0
KUM1 091646Z 33004KT 03/M05 A3037 RMK A01 T00331046  RH  056%=      5-min Rain = 0
KUM1 091647Z 34006KT 03/M04 A3037 RMK A01 T00321044  RH  057%=      5-min Rain = 0
KUM1 091648Z 34004KT 03/M05 A3037 RMK A01 T00331046  RH  056%=      5-min Rain = 0
KUM1 091649Z 35002KT 03/M05 A3037 RMK A01 T00321047  RH  056%=      5-min Rain = 0
KUM1 091650Z 36002KT 03/M05 A3037 RMK A01 T00321046  RH  057%=      5-min Rain = 0
KUM1 091651Z 02004KT 03/M05 A3037 RMK A01 T00331046  RH  056%=      5-min Rain = 0
KUM1 091652Z 01004KT 03/M05 A3037 RMK A01 T00341046  RH  056%=      5-min Rain = 0
KUM1 091653Z 35004KT 04/M04 A3037 RMK A01 T00351043  RH  057%=      5-min Rain = 0
KUM1 091654Z 01003KT 04/M04 A3037 RMK A01 T00371043  RH  056%=      5-min Rain = 0
KUM1 091655Z 35004KT 04/M04 A3037 RMK A01 T00371044  RH  055%=      5-min Rain = 0
KUM1 091656Z 35003KT 04/M04 A3037 RMK A01 T00371044  RH  055%=      5-min Rain = 0
KUM1 091657Z 36003KT 04/M04 A3037 RMK A01 T00381043  RH  055%=      5-min Rain = 0
KUM1 091658Z 02005KT 04/M04 A3037 RMK A01 T00401040  RH  056%=      5-min Rain = 0
KUM1 091659Z 01006KT 04/M04 A3037 RMK A01 T00421038  RH  056%=      5-min Rain = 0
KUM1 091700Z 01005KT 04/M04 A3037 RMK A01 T00431039  RH  056%=      5-min Rain = 0
KUM1 091701Z 02005KT 04/M04 A3037 RMK A01 T00431041  RH  055%=      5-min Rain = 0
KUM1 091702Z 00005KT 04/M04 A3037 RMK A01 T00421041  RH  055%=      5-min Rain = 0
KUM1 091703Z 34005KT 04/M04 A3037 RMK A01 T00421041  RH  055%=      5-min Rain = 0
KUM1 091704Z 34005KT 04/M04 A3037 RMK A01 T00421041  RH  055%=      5-min Rain = 0
KUM1 091705Z 00004KT 04/M04 A3037 RMK A01 T00411041  RH  055%=      5-min Rain = 0
KUM1 091706Z 01004KT 04/M04 A3037 RMK A01 T00411041  RH  055%=      5-min Rain = 0
KUM1 091707Z 36003KT 04/M04 A3037 RMK A01 T00421040  RH  055%=      5-min Rain = 0
KUM1 091708Z 34003KT 04/M04 A3037 RMK A01 T00431042  RH  054%=      5-min Rain = 0
KUM1 091709Z 02004KT 04/M04 A3037 RMK A01 T00421040  RH  055%=      5-min Rain = 0
KUM1 091710Z 02004KT 04/M04 A3037 RMK A01 T00431040  RH  055%=      5-min Rain = 0
KUM1 091711Z 02003KT 04/M04 A3037 RMK A01 T00431042  RH  054%=      5-min Rain = 0
KUM1 091712Z 02005KT 04/M04 A3037 RMK A01 T00431041  RH  054%=      5-min Rain = 0
KUM1 091713Z 03003KT 04/M04 A3037 RMK A01 T00431040  RH  054%=      5-min Rain = 0
KUM1 091714Z 03003KT 05/M04 A3037 RMK A01 T00451040  RH  054%=      5-min Rain = 0
KUM1 091715Z 02003KT 05/M04 A3037 RMK A01 T00451041  RH  054%=      5-min Rain = 0
KUM1 091716Z 34003KT 05/M04 A3037 RMK A01 T00451039  RH  055%=      5-min Rain = 0
KUM1 091717Z 34005KT 05/M04 A3037 RMK A01 T00471035  RH  056%=      5-min Rain = 0
KUM1 091718Z 34004KT 05/M04 A3037 RMK A01 T00481035  RH  055%=      5-min Rain = 0
KUM1 091719Z 33003KT 05/M04 A3037 RMK A01 T00471038  RH  054%=      5-min Rain = 0
KUM1 091720Z 35004KT 05/M04 A3037 RMK A01 T00471037  RH  054%=      5-min Rain = 0
KUM1 091721Z 33003KT 05/M04 A3037 RMK A01 T00481035  RH  055%=      5-min Rain = 0
KUM1 091722Z 34004KT 05/M03 A3037 RMK A01 T00501032  RH  055%=      5-min Rain = 0
KUM1 091723Z 33004KT 05/M03 A3037 RMK A01 T00501034  RH  054%=      5-min Rain = 0
KUM1 091724Z 32005KT 05/M03 A3037 RMK A01 T00511031  RH  055%=      5-min Rain = 0
KUM1 091725Z 34004KT 05/M03 A3037 RMK A01 T00521034  RH  054%=      5-min Rain = 0
KUM1 091726Z 34003KT 05/M04 A3037 RMK A01 T00511037  RH  053%=      5-min Rain = 0
KUM1 091727Z 34004KT 05/M03 A3037 RMK A01 T00501034  RH  055%=      5-min Rain = 0
KUM1 091728Z 33004KT 05/M04 A3037 RMK A01 T00511037  RH  053%=      5-min Rain = 0
KUM1 091729Z 31004KT 05/M04 A3037 RMK A01 T00511038  RH  053%=      5-min Rain = 0
KUM1 091730Z 01004KT 05/M04 A3037 RMK A01 T00511036  RH  053%=      5-min Rain = 0
KUM1 091731Z 01005KT 05/M04 A3037 RMK A01 T00531036  RH  053%=      5-min Rain = 0
KUM1 091732Z 01005KT 05/M04 A3037 RMK A01 T00541040  RH  051%=      5-min Rain = 0
KUM1 091733Z 36006KT 06/M04 A3037 RMK A01 T00551035  RH  052%=      5-min Rain = 0
KUM1 091734Z 36005KT 06/M04 A3037 RMK A01 T00561039  RH  051%=      5-min Rain = 0
KUM1 091735Z 01005KT 06/M04 A3037 RMK A01 T00551040  RH  050%=      5-min Rain = 0
KUM1 091736Z 02006KT 05/M04 A3037 RMK A01 T00541041  RH  050%=      5-min Rain = 0
KUM1 091737Z 01005KT 05/M04 A3037 RMK A01 T00541040  RH  051%=      5-min Rain = 0
KUM1 091738Z 34004KT 06/M04 A3037 RMK A01 T00561036  RH  051%=      5-min Rain = 0
KUM1 091739Z 02006KT 06/M04 A3037 RMK A01 T00571038  RH  051%=      5-min Rain = 0
KUM1 091740Z 02006KT 06/M04 A3037 RMK A01 T00571039  RH  050%=      5-min Rain = 0
KUM1 091741Z 35007KT 06/M04 A3037 RMK A01 T00561041  RH  049%=      5-min Rain = 0
KUM1 091742Z 34005KT 06/M04 A3037 RMK A01 T00551039  RH  051%=      5-min Rain = 0
KUM1 091743Z 33005KT 06/M04 A3037 RMK A01 T00551039  RH  051%=      5-min Rain = 0
KUM1 091744Z 34006KT 06/M04 A3037 RMK A01 T00551039  RH  051%=      5-min Rain = 0
KUM1 091745Z 36004KT 06/M04 A3037 RMK A01 T00551040  RH  050%=      5-min Rain = 0
KUM1 091746Z 35003KT 06/M04 A3037 RMK A01 T00551040  RH  050%=      5-min Rain = 0
KUM1 091747Z 35004KT 06/M04 A3037 RMK A01 T00571037  RH  051%=      5-min Rain = 0
KUM1 091748Z 34004KT 06/M04 A3037 RMK A01 T00571040  RH  050%=      5-min Rain = 0
KUM1 091749Z 35003KT 06/M04 A3037 RMK A01 T00581037  RH  051%=      5-min Rain = 0
KUM1 091750Z 35005KT 06/M04 A3037 RMK A01 T00591036  RH  050%=      5-min Rain = 0
KUM1 091751Z 36006KT 06/M03 A3037 RMK A01 T00611033  RH  051%=      5-min Rain = 0
KUM1 091752Z 35006KT 06/M04 A3037 RMK A01 T00621037  RH  049%=      5-min Rain = 0
KUM1 091753Z 34005KT 06/M04 A3036 RMK A01 T00611039  RH  049%=      5-min Rain = 0
KUM1 091754Z 36005KT 06/M04 A3036 RMK A01 T00601038  RH  050%=      5-min Rain = 0
KUM1 091755Z 34006KT 06/M04 A3036 RMK A01 T00601036  RH  050%=      5-min Rain = 0
KUM1 091756Z 34006KT 06/M04 A3036 RMK A01 T00611036  RH  050%=      5-min Rain = 0
KUM1 091757Z 35004KT 06/M04 A3036 RMK A01 T00601041  RH  048%=      5-min Rain = 0
KUM1 091758Z 01007KT 06/M04 A3036 RMK A01 T00591039  RH  050%=      5-min Rain = 0
KUM1 091759Z 02007KT 06/M04 A3036 RMK A01 T00591040  RH  049%=      5-min Rain = 0
KUM1 091800Z 02007KT 06/M04 A3036 RMK A01 T00601039  RH  049%=      5-min Rain = 0
KUM1 091801Z 02006KT 06/M04 A3036 RMK A01 T00601042  RH  048%=      5-min Rain = 0
KUM1 091802Z 01008KT 06/M04 A3036 RMK A01 T00591042  RH  048%=      5-min Rain = 0
KUM1 091803Z 03005KT 06/M04 A3036 RMK A01 T00591042  RH  048%=      5-min Rain = 0
KUM1 091804Z 03006KT 06/M04 A3036 RMK A01 T00591044  RH  047%=      5-min Rain = 0
KUM1 091805Z 02006KT 06/M05 A3036 RMK A01 T00601046  RH  046%=      5-min Rain = 0
KUM1 091806Z 01005KT 06/M05 A3036 RMK A01 T00601050  RH  045%=      5-min Rain = 0
KUM1 091807Z 01004KT 06/M05 A3036 RMK A01 T00581053  RH  045%=      5-min Rain = 0
KUM1 091808Z 02004KT 06/M05 A3036 RMK A01 T00581048  RH  046%=      5-min Rain = 0
KUM1 091809Z 02003G8KT 06/M05 A3036 RMK A01 T00591047  RH  046%=      5-min Rain = 0
KUM1 091810Z 03006KT 06/M04 A3036 RMK A01 T00611043  RH  048%=      5-min Rain = 0
KUM1 091811Z 03006KT 06/M05 A3036 RMK A01 T00601046  RH  047%=      5-min Rain = 0
KUM1 091812Z 04005KT 06/M04 A3036 RMK A01 T00591044  RH  047%=      5-min Rain = 0
KUM1 091813Z 02003KT 06/M04 A3036 RMK A01 T00601044  RH  047%=      5-min Rain = 0
KUM1 091814Z 35005KT 06/M04 A3036 RMK A01 T00601044  RH  047%=      5-min Rain = 0
KUM1 091815Z 34005KT 06/M04 A3036 RMK A01 T00621038  RH  049%=      5-min Rain = 0
KUM1 091816Z 36004KT 06/M04 A3036 RMK A01 T00621042  RH  047%=      5-min Rain = 0
KUM1 091817Z 00004KT 06/M04 A3036 RMK A01 T00621043  RH  047%=      5-min Rain = 0
KUM1 091818Z 35004KT 06/M04 A3035 RMK A01 T00621042  RH  047%=      5-min Rain = 0
KUM1 091819Z 32002KT 06/M04 A3035 RMK A01 T00621041  RH  048%=      5-min Rain = 0
KUM1 091820Z 31002KT 06/M04 A3035 RMK A01 T00621039  RH  048%=      5-min Rain = 0
KUM1 091821Z 35003KT 06/M04 A3035 RMK A01 T00641036  RH  049%=      5-min Rain = 0
KUM1 091822Z 01007KT 07/M04 A3035 RMK A01 T00651036  RH  048%=      5-min Rain = 0
KUM1 091823Z 34005KT 07/M04 A3035 RMK A01 T00671035  RH  048%=      5-min Rain = 0
KUM1 091824Z 32006KT 07/M03 A3035 RMK A01 T00681034  RH  048%=      5-min Rain = 0
KUM1 091825Z 32004KT 07/M04 A3035 RMK A01 T00661037  RH  048%=      5-min Rain = 0
KUM1 091826Z 33004KT 06/M04 A3035 RMK A01 T00641040  RH  047%=      5-min Rain = 0
KUM1 091827Z 35004KT 06/M04 A3035 RMK A01 T00641038  RH  048%=      5-min Rain = 0
KUM1 091828Z 03003KT 07/M04 A3035 RMK A01 T00651035  RH  049%=      5-min Rain = 0
KUM1 091829Z 03007KT 07/M04 A3035 RMK A01 T00671037  RH  047%=      5-min Rain = 0
KUM1 091830Z 03005KT 07/M04 A3035 RMK A01 T00671043  RH  045%=      5-min Rain = 0
KUM1 091831Z 01005KT 07/M04 A3034 RMK A01 T00661043  RH  046%=      5-min Rain = 0
KUM1 091832Z 02007KT 07/M04 A3034 RMK A01 T00661040  RH  047%=      5-min Rain = 0
KUM1 091833Z 03008KT 07/M04 A3034 RMK A01 T00681037  RH  047%=      5-min Rain = 0
KUM1 091834Z 03006KT 07/M04 A3034 RMK A01 T00691041  RH  045%=      5-min Rain = 0
KUM1 091835Z 02008KT 07/M04 A3034 RMK A01 T00691037  RH  047%=      5-min Rain = 0
KUM1 091836Z 03008KT 07/M04 A3034 RMK A01 T00711036  RH  046%=      5-min Rain = 0
KUM1 091837Z 03008KT 07/M04 A3034 RMK A01 T00701041  RH  045%=      5-min Rain = 0
KUM1 091838Z 02008KT 07/M04 A3034 RMK A01 T00701038  RH  046%=      5-min Rain = 0
KUM1 091839Z 04008KT 07/M04 A3034 RMK A01 T00711039  RH  046%=      5-min Rain = 0
KUM1 091840Z 04007KT 07/M04 A3034 RMK A01 T00691044  RH  045%=      5-min Rain = 0
KUM1 091841Z 03006KT 07/M04 A3034 RMK A01 T00681044  RH  045%=      5-min Rain = 0
KUM1 091842Z 02007KT 07/M04 A3034 RMK A01 T00681043  RH  045%=      5-min Rain = 0
KUM1 091843Z 01005KT 07/M04 A3034 RMK A01 T00671043  RH  045%=      5-min Rain = 0
KUM1 091844Z 01004KT 07/M04 A3034 RMK A01 T00671043  RH  045%=      5-min Rain = 0
KUM1 091845Z 03004KT 07/M04 A3034 RMK A01 T00671041  RH  046%=      5-min Rain = 0
KUM1 091846Z 02006KT 07/M04 A3034 RMK A01 T00681041  RH  046%=      5-min Rain = 0
KUM1 091847Z 02008KT 07/M04 A3034 RMK A01 T00701039  RH  046%=      5-min Rain = 0
KUM1 091848Z 35006KT 07/M04 A3034 RMK A01 T00701042  RH  045%=      5-min Rain = 0
KUM1 091849Z 01005KT 07/M04 A3034 RMK A01 T00691043  RH  045%=      5-min Rain = 0
KUM1 091850Z 04006KT 07/M04 A3034 RMK A01 T00691042  RH  045%=      5-min Rain = 0
KUM1 091851Z 03007KT 07/M04 A3034 RMK A01 T00711039  RH  045%=      5-min Rain = 0
KUM1 091852Z 03009KT 07/M04 A3034 RMK A01 T00721039  RH  045%=      5-min Rain = 0
KUM1 091853Z 03008KT 07/M04 A3034 RMK A01 T00731040  RH  044%=      5-min Rain = 0
KUM1 091854Z 01007KT 07/M04 A3033 RMK A01 T00711042  RH  044%=      5-min Rain = 0
KUM1 091855Z 01006KT 07/M04 A3033 RMK A01 T00701043  RH  044%=      5-min Rain = 0
KUM1 091856Z 01004KT 07/M05 A3033 RMK A01 T00691045  RH  044%=      5-min Rain = 0
KUM1 091857Z 01003KT 07/M05 A3033 RMK A01 T00671049  RH  043%=      5-min Rain = 0
KUM1 091858Z 36004KT 07/M05 A3033 RMK A01 T00671046  RH  045%=      5-min Rain = 0
KUM1 091859Z 02004KT 07/M05 A3033 RMK A01 T00661047  RH  044%=      5-min Rain = 0
KUM1 091900Z 03004KT 07/M05 A3033 RMK A01 T00661047  RH  044%=      5-min Rain = 0
KUM1 091901Z 00008KT 07/M05 A3033 RMK A01 T00661045  RH  045%=      5-min Rain = 0
KUM1 091902Z 03008KT 07/M04 A3033 RMK A01 T00671041  RH  046%=      5-min Rain = 0
KUM1 091903Z 03005KT 07/M04 A3033 RMK A01 T00701042  RH  045%=      5-min Rain = 0
KUM1 091904Z 04004KT 07/M04 A3033 RMK A01 T00691044  RH  044%=      5-min Rain = 0
KUM1 091905Z 03008KT 07/M04 A3033 RMK A01 T00711039  RH  045%=      5-min Rain = 0
KUM1 091906Z 02007KT 07/M04 A3033 RMK A01 T00731040  RH  044%=      5-min Rain = 0
KUM1 091907Z 04006KT 07/M04 A3033 RMK A01 T00731042  RH  044%=      5-min Rain = 0
KUM1 091908Z 04007KT 07/M04 A3033 RMK A01 T00721043  RH  044%=      5-min Rain = 0
KUM1 091909Z 02007KT 07/M04 A3033 RMK A01 T00721042  RH  044%=      5-min Rain = 0
KUM1 091910Z 02008KT 07/M04 A3033 RMK A01 T00721043  RH  044%=      5-min Rain = 0
KUM1 091911Z 04007KT 07/M04 A3033 RMK A01 T00711041  RH  045%=      5-min Rain = 0
KUM1 091912Z 03006KT 07/M04 A3033 RMK A01 T00711041  RH  045%=      5-min Rain = 0
KUM1 091913Z 03008KT 07/M04 A3033 RMK A01 T00721039  RH  045%=      5-min Rain = 0
KUM1 091914Z 05006KT 07/M04 A3033 RMK A01 T00731042  RH  044%=      5-min Rain = 0
KUM1 091915Z 03007KT 07/M04 A3033 RMK A01 T00721043  RH  044%=      5-min Rain = 0
KUM1 091916Z 03006KT 07/M04 A3033 RMK A01 T00721042  RH  044%=      5-min Rain = 0
KUM1 091917Z 02004KT 07/M05 A3033 RMK A01 T00711045  RH  043%=      5-min Rain = 0
KUM1 091918Z 02005KT 07/M05 A3033 RMK A01 T00701045  RH  044%=      5-min Rain = 0
KUM1 091919Z 03008KT 07/M04 A3033 RMK A01 T00711041  RH  045%=      5-min Rain = 0
KUM1 091920Z 00006KT 07/M04 A3033 RMK A01 T00731043  RH  044%=      5-min Rain = 0
KUM1 091921Z 01006KT 07/M04 A3033 RMK A01 T00721044  RH  043%=      5-min Rain = 0
KUM1 091922Z 36007KT 07/M04 A3033 RMK A01 T00721044  RH  043%=      5-min Rain = 0
KUM1 091923Z 34008KT 07/M04 A3033 RMK A01 T00731044  RH  043%=      5-min Rain = 0
KUM1 091924Z 34007KT 08/M04 A3033 RMK A01 T00751039  RH  044%=      5-min Rain = 0
KUM1 091925Z 34005KT 08/M04 A3033 RMK A01 T00761040  RH  043%=      5-min Rain = 0
KUM1 091926Z 35004KT 08/M04 A3033 RMK A01 T00761040  RH  044%=      5-min Rain = 0
KUM1 091927Z 36005KT 07/M04 A3033 RMK A01 T00741043  RH  043%=      5-min Rain = 0
KUM1 091928Z 02004KT 07/M04 A3033 RMK A01 T00741043  RH  043%=      5-min Rain = 0
KUM1 091929Z 01005KT 07/M04 A3033 RMK A01 T00741039  RH  045%=      5-min Rain = 0
KUM1 091930Z 01005KT 08/M04 A3033 RMK A01 T00761038  RH  044%=      5-min Rain = 0
KUM1 091931Z 02005KT 08/M04 A3033 RMK A01 T00771039  RH  043%=      5-min Rain = 0
KUM1 091932Z 05004KT 08/M04 A3033 RMK A01 T00771041  RH  043%=      5-min Rain = 0
KUM1 091933Z 06004KT 08/M05 A3033 RMK A01 T00761046  RH  042%=      5-min Rain = 0
KUM1 091934Z 01007G13KT 08/M04 A3032 RMK A01 T00751043  RH  043%=      5-min Rain = 0
KUM1 091935Z 00006KT 08/M04 A3033 RMK A01 T00761044  RH  042%=      5-min Rain = 0
KUM1 091936Z 01007KT 08/M05 A3032 RMK A01 T00751045  RH  042%=      5-min Rain = 0
KUM1 091937Z 02007KT 08/M04 A3032 RMK A01 T00761043  RH  043%=      5-min Rain = 0
KUM1 091938Z 35008KT 08/M04 A3032 RMK A01 T00771043  RH  042%=      5-min Rain = 0
KUM1 091939Z 34007KT 08/M04 A3032 RMK A01 T00781043  RH  042%=      5-min Rain = 0
KUM1 091940Z 33006KT 08/M04 A3032 RMK A01 T00781041  RH  043%=      5-min Rain = 0
KUM1 091941Z 34006KT 08/M05 A3032 RMK A01 T00771048  RH  041%=      5-min Rain = 0
KUM1 091942Z 36005KT 08/M05 A3032 RMK A01 T00761047  RH  041%=      5-min Rain = 0
KUM1 091943Z 35006KT 08/M05 A3032 RMK A01 T00761045  RH  042%=      5-min Rain = 0
KUM1 091944Z 35004KT 08/M05 A3032 RMK A01 T00771050  RH  040%=      5-min Rain = 0
KUM1 091945Z 32005KT 08/M05 A3032 RMK A01 T00771046  RH  042%=      5-min Rain = 0
KUM1 091946Z 34004KT 08/M04 A3032 RMK A01 T00771043  RH  042%=      5-min Rain = 0
KUM1 091947Z 02003KT 08/M04 A3032 RMK A01 T00781042  RH  042%=      5-min Rain = 0
KUM1 091948Z 01005KT 08/M04 A3032 RMK A01 T00791044  RH  042%=      5-min Rain = 0
KUM1 091949Z 01004KT 08/M05 A3032 RMK A01 T00781045  RH  041%=      5-min Rain = 0
KUM1 091950Z 01005KT 08/M05 A3032 RMK A01 T00771045  RH  042%=      5-min Rain = 0
KUM1 091951Z 03005KT 08/M04 A3032 RMK A01 T00771044  RH  042%=      5-min Rain = 0
KUM1 091952Z 05001KT 08/M05 A3032 RMK A01 T00761045  RH  042%=      5-min Rain = 0
KUM1 091953Z 02002KT 08/M04 A3032 RMK A01 T00771044  RH  042%=      5-min Rain = 0
KUM1 091954Z 04005KT 08/M04 A3032 RMK A01 T00791038  RH  043%=      5-min Rain = 0
KUM1 091955Z 03006KT 08/M04 A3032 RMK A01 T00811039  RH  042%=      5-min Rain = 0
KUM1 091956Z 03005KT 08/M04 A3032 RMK A01 T00811042  RH  042%=      5-min Rain = 0
KUM1 091957Z 05005KT 08/M04 A3032 RMK A01 T00791043  RH  042%=      5-min Rain = 0
KUM1 091958Z 03005KT 08/M04 A3032 RMK A01 T00781044  RH  041%=      5-min Rain = 0
KUM1 091959Z 01005KT 08/M04 A3032 RMK A01 T00781043  RH  042%=      5-min Rain = 0
KUM1 092000Z 36005KT 08/M04 A3032 RMK A01 T00801042  RH  042%=      5-min Rain = 0
KUM1 092001Z 35006KT 08/M04 A3032 RMK A01 T00821039  RH  042%=      5-min Rain = 0
KUM1 092002Z 33005KT 08/M04 A3032 RMK A01 T00831044  RH  040%=      5-min Rain = 0
KUM1 092003Z 33004KT 08/M05 A3032 RMK A01 T00821045  RH  040%=      5-min Rain = 0
KUM1 092004Z 32003KT 08/M05 A3032 RMK A01 T00811048  RH  040%=      5-min Rain = 0
KUM1 092005Z 33002KT 08/M04 A3032 RMK A01 T00801044  RH  041%=      5-min Rain = 0
KUM1 092006Z 35004KT 08/M04 A3032 RMK A01 T00821043  RH  041%=      5-min Rain = 0
KUM1 092007Z 00005KT 08/M04 A3032 RMK A01 T00831044  RH  040%=      5-min Rain = 0
KUM1 092008Z 00004KT 08/M04 A3032 RMK A01 T00841043  RH  040%=      5-min Rain = 0
KUM1 092009Z 00007KT 08/M05 A3032 RMK A01 T00841047  RH  039%=      5-min Rain = 0
KUM1 092010Z 01007KT 08/M05 A3032 RMK A01 T00841050  RH  038%=      5-min Rain = 0
KUM1 092011Z 01007KT 08/M05 A3032 RMK A01 T00831051  RH  038%=      5-min Rain = 0
KUM1 092012Z 02008KT 08/M05 A3032 RMK A01 T00831053  RH  038%=      5-min Rain = 0
KUM1 092013Z 01007KT 08/M05 A3032 RMK A01 T00811052  RH  039%=      5-min Rain = 0
KUM1 092014Z 01005KT 08/M05 A3032 RMK A01 T00801053  RH  038%=      5-min Rain = 0
KUM1 092015Z 01004KT 08/M06 A3032 RMK A01 T00791057  RH  038%=      5-min Rain = 0
KUM1 092016Z 02004KT 08/M06 A3032 RMK A01 T00791056  RH  038%=      5-min Rain = 0
KUM1 092017Z 35002KT 08/M06 A3031 RMK A01 T00801057  RH  037%=      5-min Rain = 0
KUM1 092018Z 36003KT 08/M06 A3031 RMK A01 T00811061  RH  036%=      5-min Rain = 0
KUM1 092019Z 35004KT 08/M06 A3031 RMK A01 T00801064  RH  035%=      5-min Rain = 0
KUM1 092020Z 36001KT 08/M07 A3031 RMK A01 T00801068  RH  034%=      5-min Rain = 0
KUM1 092021Z 35001KT 08/M07 A3031 RMK A01 T00801066  RH  035%=      5-min Rain = 0
KUM1 092022Z 32003KT 08/M06 A3031 RMK A01 T00811063  RH  035%=      5-min Rain = 0
KUM1 092023Z 30002KT 08/M06 A3031 RMK A01 T00811060  RH  036%=      5-min Rain = 0
KUM1 092024Z 30001KT 08/M05 A3031 RMK A01 T00811054  RH  038%=      5-min Rain = 0
KUM1 092025Z 33002KT 08/M06 A3031 RMK A01 T00821057  RH  037%=      5-min Rain = 0
KUM1 092026Z 02001KT 08/M05 A3031 RMK A01 T00841053  RH  037%=      5-min Rain = 0
KUM1 092027Z 05003KT 09/M05 A3031 RMK A01 T00851052  RH  037%=      5-min Rain = 0
KUM1 092028Z 05003KT 09/M05 A3031 RMK A01 T00851051  RH  038%=      5-min Rain = 0
KUM1 092029Z 02004KT 09/M05 A3031 RMK A01 T00851047  RH  039%=      5-min Rain = 0
KUM1 092030Z 35005KT 09/M04 A3031 RMK A01 T00871038  RH  041%=      5-min Rain = 0
KUM1 092031Z 02004KT 09/M05 A3031 RMK A01 T00871049  RH  038%=      5-min Rain = 0
KUM1 092032Z 01002KT 09/M05 A3031 RMK A01 T00851054  RH  037%=      5-min Rain = 0
KUM1 092033Z 01005KT 08/M05 A3031 RMK A01 T00841052  RH  038%=      5-min Rain = 0
KUM1 092034Z 00008KT 09/M05 A3031 RMK A01 T00861047  RH  039%=      5-min Rain = 0
KUM1 092035Z 00008KT 09/M05 A3031 RMK A01 T00871052  RH  037%=      5-min Rain = 0
KUM1 092036Z 00007KT 09/M05 A3031 RMK A01 T00861053  RH  037%=      5-min Rain = 0
KUM1 092037Z 01005KT 09/M06 A3031 RMK A01 T00851057  RH  036%=      5-min Rain = 0
KUM1 092038Z 03004KT 08/M06 A3031 RMK A01 T00841057  RH  036%=      5-min Rain = 0
KUM1 092039Z 01004KT 08/M06 A3031 RMK A01 T00841056  RH  037%=      5-min Rain = 0
KUM1 092040Z 01002KT 08/M06 A3031 RMK A01 T00841057  RH  036%=      5-min Rain = 0
KUM1 092041Z 02004KT 09/M05 A3031 RMK A01 T00851053  RH  037%=      5-min Rain = 0
KUM1 092042Z 03007KT 09/M05 A3031 RMK A01 T00861051  RH  038%=      5-min Rain = 0
KUM1 092043Z 04007KT 09/M05 A3031 RMK A01 T00881054  RH  036%=      5-min Rain = 0
KUM1 092044Z 06005KT 09/M06 A3031 RMK A01 T00861062  RH  035%=      5-min Rain = 0
KUM1 092045Z 05005KT 09/M06 A3031 RMK A01 T00851061  RH  035%=      5-min Rain = 0
KUM1 092046Z 04004KT 08/M06 A3031 RMK A01 T00841062  RH  035%=      5-min Rain = 0
KUM1 092047Z 04005KT 09/M06 A3031 RMK A01 T00851056  RH  036%=      5-min Rain = 0
KUM1 092048Z 03005KT 09/M06 A3031 RMK A01 T00871056  RH  036%=      5-min Rain = 0
KUM1 092049Z 03005KT 09/M06 A3032 RMK A01 T00881058  RH  035%=      5-min Rain = 0
KUM1 092050Z 04004KT 09/M06 A3032 RMK A01 T00881062  RH  034%=      5-min Rain = 0
KUM1 092051Z 03008KT 09/M06 A3032 RMK A01 T00871061  RH  035%=      5-min Rain = 0
KUM1 092052Z 02007KT 09/M06 A3032 RMK A01 T00871060  RH  035%=      5-min Rain = 0
KUM1 092053Z 03007KT 09/M06 A3032 RMK A01 T00891057  RH  035%=      5-min Rain = 0
KUM1 092054Z 02006KT 09/M06 A3032 RMK A01 T00881063  RH  034%=      5-min Rain = 0
KUM1 092055Z 35004KT 09/M06 A3032 RMK A01 T00871062  RH  034%=      5-min Rain = 0
KUM1 092056Z 00004KT 09/M07 A3031 RMK A01 T00861065  RH  034%=      5-min Rain = 0
KUM1 092057Z 01004KT 09/M06 A3031 RMK A01 T00861059  RH  035%=      5-min Rain = 0
KUM1 092058Z 01004KT 09/M06 A3031 RMK A01 T00871057  RH  036%=      5-min Rain = 0
KUM1 092059Z 01004KT 09/M06 A3031 RMK A01 T00881061  RH  034%=      5-min Rain = 0
KUM1 092100Z 02007KT 09/M06 A3031 RMK A01 T00881058  RH  035%=      5-min Rain = 0
KUM1 092101Z 02008KT 09/M06 A3031 RMK A01 T00891060  RH  034%=      5-min Rain = 0
KUM1 092102Z 02008KT 09/M06 A3031 RMK A01 T00891062  RH  034%=      5-min Rain = 0
KUM1 092103Z 02006KT 09/M06 A3031 RMK A01 T00881063  RH  034%=      5-min Rain = 0
KUM1 092104Z 01007KT 09/M06 A3031 RMK A01 T00881063  RH  034%=      5-min Rain = 0
KUM1 092105Z 00006KT 09/M06 A3031 RMK A01 T00881060  RH  034%=      5-min Rain = 0
KUM1 092106Z 36005KT 09/M06 A3031 RMK A01 T00871063  RH  034%=      5-min Rain = 0
KUM1 092107Z 02008KT 09/M06 A3031 RMK A01 T00861062  RH  034%=      5-min Rain = 0
KUM1 092108Z 02007KT 09/M07 A3032 RMK A01 T00861066  RH  034%=      5-min Rain = 0
KUM1 092109Z 01005KT 09/M07 A3032 RMK A01 T00851065  RH  034%=      5-min Rain = 0
KUM1 092110Z 03005KT 09/M07 A3031 RMK A01 T00851069  RH  033%=      5-min Rain = 0
KUM1 092111Z 04005KT 09/M07 A3031 RMK A01 T00861067  RH  033%=      5-min Rain = 0
KUM1 092112Z 04006KT 09/M07 A3031 RMK A01 T00861067  RH  033%=      5-min Rain = 0
KUM1 092113Z 04007KT 09/M07 A3031 RMK A01 T00871065  RH  034%=      5-min Rain = 0
KUM1 092114Z 02007KT 09/M06 A3032 RMK A01 T00871064  RH  034%=      5-min Rain = 0
KUM1 092115Z 02006KT 09/M06 A3032 RMK A01 T00871064  RH  034%=      5-min Rain = 0
KUM1 092116Z 01006KT 09/M07 A3032 RMK A01 T00861065  RH  034%=      5-min Rain = 0
KUM1 092117Z 00006KT 09/M06 A3031 RMK A01 T00871062  RH  034%=      5-min Rain = 0
KUM1 092118Z 01007KT 09/M06 A3031 RMK A01 T00871062  RH  034%=      5-min Rain = 0
KUM1 092119Z 03006KT 09/M07 A3031 RMK A01 T00881065  RH  033%=      5-min Rain = 0
KUM1 092120Z 03007KT 09/M06 A3031 RMK A01 T00891062  RH  034%=      5-min Rain = 0
KUM1 092121Z 01008KT 09/M07 A3032 RMK A01 T00911065  RH  033%=      5-min Rain = 0
KUM1 092122Z 01007KT 09/M07 A3032 RMK A01 T00891067  RH  032%=      5-min Rain = 0
KUM1 092123Z 02007KT 09/M07 A3032 RMK A01 T00891067  RH  033%=      5-min Rain = 0
KUM1 092124Z 01006KT 09/M07 A3032 RMK A01 T00881065  RH  033%=      5-min Rain = 0
KUM1 092125Z 01006KT 09/M07 A3032 RMK A01 T00891066  RH  033%=      5-min Rain = 0
KUM1 092126Z 02006KT 09/M07 A3032 RMK A01 T00881069  RH  032%=      5-min Rain = 0
KUM1 092127Z 02007KT 09/M07 A3032 RMK A01 T00881065  RH  033%=      5-min Rain = 0
KUM1 092128Z 36006KT 09/M07 A3032 RMK A01 T00881065  RH  033%=      5-min Rain = 0
KUM1 092129Z 35004KT 09/M07 A3032 RMK A01 T00871066  RH  033%=      5-min Rain = 0
KUM1 092130Z 02006KT 09/M07 A3032 RMK A01 T00871065  RH  033%=      5-min Rain = 0
KUM1 092131Z 02005KT 09/M06 A3032 RMK A01 T00871064  RH  034%=      5-min Rain = 0
KUM1 092132Z 01004KT 09/M07 A3032 RMK A01 T00861065  RH  034%=      5-min Rain = 0
KUM1 092133Z 01008KT 09/M07 A3032 RMK A01 T00861065  RH  034%=      5-min Rain = 0
KUM1 092134Z 01008KT 09/M07 A3032 RMK A01 T00871067  RH  033%=      5-min Rain = 0
KUM1 092135Z 36006KT 09/M07 A3032 RMK A01 T00871070  RH  032%=      5-min Rain = 0
KUM1 092136Z 36008KT 09/M07 A3031 RMK A01 T00871067  RH  033%=      5-min Rain = 0
KUM1 092137Z 01007KT 09/M06 A3032 RMK A01 T00881064  RH  033%=      5-min Rain = 0
KUM1 092138Z 36007KT 09/M06 A3032 RMK A01 T00891064  RH  033%=      5-min Rain = 0
KUM1 092139Z 35005KT 09/M06 A3031 RMK A01 T00891064  RH  033%=      5-min Rain = 0
KUM1 092140Z 02007KT 09/M07 A3031 RMK A01 T00881065  RH  033%=      5-min Rain = 0
KUM1 092141Z 03007KT 09/M06 A3031 RMK A01 T00891062  RH  034%=      5-min Rain = 0
KUM1 092142Z 01007KT 09/M06 A3031 RMK A01 T00891064  RH  033%=      5-min Rain = 0
KUM1 092143Z 04007KT 09/M07 A3031 RMK A01 T00881067  RH  033%=      5-min Rain = 0
KUM1 092144Z 04004KT 09/M07 A3031 RMK A01 T00871070  RH  032%=      5-min Rain = 0
KUM1 092145Z 03005KT 09/M07 A3031 RMK A01 T00871067  RH  033%=      5-min Rain = 0
KUM1 092146Z 01007KT 09/M06 A3031 RMK A01 T00881063  RH  034%=      5-min Rain = 0
KUM1 092147Z 01008KT 09/M06 A3031 RMK A01 T00881062  RH  034%=      5-min Rain = 0
KUM1 092148Z 01006KT 09/M07 A3031 RMK A01 T00881067  RH  033%=      5-min Rain = 0
KUM1 092149Z 36005KT 09/M07 A3031 RMK A01 T00871071  RH  032%=      5-min Rain = 0
KUM1 092150Z 00004KT 09/M07 A3031 RMK A01 T00871068  RH  033%=      5-min Rain = 0
KUM1 092151Z 02005KT 09/M06 A3031 RMK A01 T00881062  RH  034%=      5-min Rain = 0
KUM1 092152Z 02006KT 09/M07 A3031 RMK A01 T00881066  RH  033%=      5-min Rain = 0
KUM1 092153Z 03005KT 09/M07 A3031 RMK A01 T00881067  RH  033%=      5-min Rain = 0
KUM1 092154Z 05003KT 09/M07 A3031 RMK A01 T00871071  RH  032%=      5-min Rain = 0
KUM1 092155Z 03003KT 09/M07 A3031 RMK A01 T00871074  RH  031%=      5-min Rain = 0
KUM1 092156Z 03004KT 09/M07 A3031 RMK A01 T00871070  RH  032%=      5-min Rain = 0
KUM1 092157Z 04006KT 09/M07 A3031 RMK A01 T00871069  RH  032%=      5-min Rain = 0
KUM1 092158Z 01007KT 09/M07 A3031 RMK A01 T00891066  RH  033%=      5-min Rain = 0
KUM1 092159Z 01006KT 09/M07 A3031 RMK A01 T00891073  RH  031%=      5-min Rain = 0
KUM1 092200Z 02005KT 09/M07 A3031 RMK A01 T00891074  RH  031%=      5-min Rain = 0
KUM1 092201Z 01003KT 09/M08 A3031 RMK A01 T00881078  RH  030%=      5-min Rain = 0
KUM1 092202Z 01002KT 09/M08 A3031 RMK A01 T00871081  RH  029%=      5-min Rain = 0
KUM1 092203Z 01003KT 09/M08 A3031 RMK A01 T00871079  RH  030%=      5-min Rain = 0
KUM1 092204Z 35002KT 09/M08 A3031 RMK A01 T00881080  RH  030%=      5-min Rain = 0
KUM1 092205Z 02002KT 09/M08 A3031 RMK A01 T00881078  RH  030%=      5-min Rain = 0
KUM1 092206Z 05004KT 09/M08 A3031 RMK A01 T00881077  RH  030%=      5-min Rain = 0
KUM1 092207Z 04005KT 09/M07 A3031 RMK A01 T00881071  RH  032%=      5-min Rain = 0
KUM1 092208Z 05003KT 09/M07 A3031 RMK A01 T00881073  RH  031%=      5-min Rain = 0
KUM1 092209Z 04005KT 09/M07 A3031 RMK A01 T00881073  RH  031%=      5-min Rain = 0
KUM1 092210Z 06004KT 09/M07 A3031 RMK A01 T00871072  RH  032%=      5-min Rain = 0
KUM1 092211Z 04004KT 09/M07 A3031 RMK A01 T00871068  RH  033%=      5-min Rain = 0
KUM1 092212Z 04004KT 09/M07 A3031 RMK A01 T00881071  RH  032%=      5-min Rain = 0
KUM1 092213Z 07005KT 09/M08 A3031 RMK A01 T00891075  RH  031%=      5-min Rain = 0
KUM1 092214Z 06004KT 09/M08 A3031 RMK A01 T00881078  RH  030%=      5-min Rain = 0
KUM1 092215Z 06005KT 09/M08 A3031 RMK A01 T00881076  RH  031%=      5-min Rain = 0
KUM1 092216Z 05004KT 09/M08 A3031 RMK A01 T00881078  RH  030%=      5-min Rain = 0
KUM1 092217Z 05004KT 09/M07 A3031 RMK A01 T00881074  RH  031%=      5-min Rain = 0
KUM1 092218Z 06005KT 09/M07 A3031 RMK A01 T00881070  RH  032%=      5-min Rain = 0
KUM1 092219Z 06005KT 09/M07 A3031 RMK A01 T00881072  RH  031%=      5-min Rain = 0
KUM1 092220Z 05006KT 09/M07 A3031 RMK A01 T00881071  RH  032%=      5-min Rain = 0
KUM1 092221Z 04005KT 09/M08 A3031 RMK A01 T00881078  RH  030%=      5-min Rain = 0
KUM1 092222Z 04005KT 09/M08 A3031 RMK A01 T00871079  RH  030%=      5-min Rain = 0
KUM1 092223Z 04005KT 09/M08 A3031 RMK A01 T00871076  RH  031%=      5-min Rain = 0
KUM1 092224Z 05004KT 09/M08 A3031 RMK A01 T00871076  RH  031%=      5-min Rain = 0
KUM1 092225Z 05004KT 09/M08 A3031 RMK A01 T00861079  RH  030%=      5-min Rain = 0
KUM1 092226Z 06005KT 09/M08 A3031 RMK A01 T00861077  RH  031%=      5-min Rain = 0
KUM1 092227Z 06004KT 09/M08 A3031 RMK A01 T00861079  RH  030%=      5-min Rain = 0
KUM1 092228Z 05005KT 09/M08 A3031 RMK A01 T00861079  RH  030%=      5-min Rain = 0
KUM1 092229Z 04005KT 09/M08 A3031 RMK A01 T00871077  RH  030%=      5-min Rain = 0
KUM1 092230Z 04005KT 09/M08 A3031 RMK A01 T00871080  RH  030%=      5-min Rain = 0
KUM1 092231Z 05006KT 09/M09 A3031 RMK A01 T00861087  RH  028%=      5-min Rain = 0
KUM1 092232Z 05007KT 09/M09 A3031 RMK A01 T00861092  RH  027%=      5-min Rain = 0
KUM1 092233Z 05006KT 09/M09 A3031 RMK A01 T00861094  RH  027%=      5-min Rain = 0
KUM1 092234Z 05006KT 09/M10 A3031 RMK A01 T00851095  RH  027%=      5-min Rain = 0
KUM1 092235Z 04005KT 09/M10 A3032 RMK A01 T00851099  RH  026%=      5-min Rain = 0
KUM1 092236Z 05005KT 09/M10 A3032 RMK A01 T00851097  RH  026%=      5-min Rain = 0
KUM1 092237Z 05004KT 09/M09 A3032 RMK A01 T00851091  RH  028%=      5-min Rain = 0
KUM1 092238Z 05005KT 09/M09 A3032 RMK A01 T00851089  RH  028%=      5-min Rain = 0
KUM1 092239Z 05006KT 08/M09 A3032 RMK A01 T00841092  RH  028%=      5-min Rain = 0
KUM1 092240Z 05005KT 08/M09 A3032 RMK A01 T00841094  RH  027%=      5-min Rain = 0
KUM1 092241Z 04005KT 08/M09 A3031 RMK A01 T00841093  RH  027%=      5-min Rain = 0
KUM1 092242Z 05007KT 08/M09 A3031 RMK A01 T00831088  RH  029%=      5-min Rain = 0
KUM1 092243Z 04007KT 08/M09 A3032 RMK A01 T00831091  RH  028%=      5-min Rain = 0
KUM1 092244Z 04006KT 08/M09 A3032 RMK A01 T00831091  RH  028%=      5-min Rain = 0
KUM1 092245Z 05006KT 08/M09 A3032 RMK A01 T00821088  RH  029%=      5-min Rain = 0
KUM1 092246Z 04006KT 08/M09 A3032 RMK A01 T00811090  RH  029%=      5-min Rain = 0
KUM1 092247Z 05005KT 08/M09 A3032 RMK A01 T00811085  RH  030%=      5-min Rain = 0
KUM1 092248Z 05005KT 08/M08 A3032 RMK A01 T00801083  RH  031%=      5-min Rain = 0
KUM1 092249Z 05005KT 08/M08 A3032 RMK A01 T00801081  RH  031%=      5-min Rain = 0
KUM1 092250Z 05005KT 08/M08 A3032 RMK A01 T00801081  RH  031%=      5-min Rain = 0
KUM1 092251Z 05005KT 08/M08 A3032 RMK A01 T00801083  RH  031%=      5-min Rain = 0
KUM1 092252Z 05006KT 08/M08 A3032 RMK A01 T00801083  RH  031%=      5-min Rain = 0
KUM1 092253Z 05005KT 08/M08 A3032 RMK A01 T00791082  RH  031%=      5-min Rain = 0
KUM1 092254Z 05005KT 08/M08 A3032 RMK A01 T00791081  RH  031%=      5-min Rain = 0
KUM1 092255Z 05005KT 08/M08 A3032 RMK A01 T00781079  RH  032%=      5-min Rain = 0
KUM1 092256Z 04005KT 08/M08 A3032 RMK A01 T00781079  RH  032%=      5-min Rain = 0
KUM1 092257Z 04005KT 08/M08 A3032 RMK A01 T00771079  RH  032%=      5-min Rain = 0
KUM1 092258Z 04006KT 08/M08 A3032 RMK A01 T00761081  RH  032%=      5-min Rain = 0
KUM1 092259Z 04006KT 08/M08 A3032 RMK A01 T00761083  RH  031%=      5-min Rain = 0
KUM1 092300Z 04006KT 08/M08 A3032 RMK A01 T00751084  RH  031%=      5-min Rain = 0
KUM1 092301Z 04006KT 08/M09 A3032 RMK A01 T00751086  RH  031%=      5-min Rain = 0
KUM1 092302Z 04006KT 07/M09 A3032 RMK A01 T00741085  RH  031%=      5-min Rain = 0
KUM1 092303Z 04006KT 07/M08 A3032 RMK A01 T00731084  RH  032%=      5-min Rain = 0
KUM1 092304Z 04006KT 07/M08 A3032 RMK A01 T00721084  RH  032%=      5-min Rain = 0
KUM1 092305Z 05005KT 07/M08 A3032 RMK A01 T00711084  RH  032%=      5-min Rain = 0
KUM1 092306Z 05005KT 07/M08 A3032 RMK A01 T00701084  RH  032%=      5-min Rain = 0
KUM1 092307Z 05005KT 07/M08 A3032 RMK A01 T00701082  RH  033%=      5-min Rain = 0
KUM1 092308Z 05005KT 07/M08 A3032 RMK A01 T00681081  RH  034%=      5-min Rain = 0
KUM1 092309Z 05005KT 07/M08 A3032 RMK A01 T00681080  RH  034%=      5-min Rain = 0
KUM1 092310Z 05005KT 07/M08 A3032 RMK A01 T00671079  RH  034%=      5-min Rain = 0
KUM1 092311Z 05005KT 07/M08 A3032 RMK A01 T00671078  RH  035%=      5-min Rain = 0
KUM1 092312Z 05005KT 07/M08 A3032 RMK A01 T00661078  RH  035%=      5-min Rain = 0
KUM1 092313Z 05004KT 07/M08 A3032 RMK A01 T00651076  RH  036%=      5-min Rain = 0
KUM1 092314Z 05005KT 06/M07 A3032 RMK A01 T00631074  RH  037%=      5-min Rain = 0
KUM1 092315Z 05005KT 06/M08 A3032 RMK A01 T00621075  RH  037%=      5-min Rain = 0
KUM1 092316Z 05005KT 06/M08 A3032 RMK A01 T00621077  RH  036%=      5-min Rain = 0
KUM1 092317Z 05005KT 06/M08 A3032 RMK A01 T00621078  RH  036%=      5-min Rain = 0
KUM1 092318Z 06005KT 06/M08 A3032 RMK A01 T00611078  RH  036%=      5-min Rain = 0
KUM1 092319Z 06005KT 06/M08 A3032 RMK A01 T00601078  RH  036%=      5-min Rain = 0
KUM1 092320Z 06005KT 06/M08 A3032 RMK A01 T00591078  RH  037%=      5-min Rain = 0
KUM1 092321Z 06005KT 06/M08 A3032 RMK A01 T00581078  RH  037%=      5-min Rain = 0
KUM1 092322Z 06005KT 06/M08 A3032 RMK A01 T00561077  RH  038%=      5-min Rain = 0
KUM1 092323Z 05005KT 05/M08 A3032 RMK A01 T00541076  RH  039%=      5-min Rain = 0
KUM1 092324Z 05005KT 05/M08 A3032 RMK A01 T00531075  RH  039%=      5-min Rain = 0
KUM1 092325Z 05005KT 05/M08 A3032 RMK A01 T00511075  RH  040%=      5-min Rain = 0
KUM1 092326Z 05006KT 05/M08 A3032 RMK A01 T00501076  RH  040%=      5-min Rain = 0
KUM1 092327Z 05006KT 05/M08 A3032 RMK A01 T00491076  RH  040%=      5-min Rain = 0
KUM1 092328Z 05006KT 05/M08 A3032 RMK A01 T00481076  RH  040%=      5-min Rain = 0
KUM1 092329Z 05006KT 05/M08 A3032 RMK A01 T00471077  RH  040%=      5-min Rain = 0
KUM1 092330Z 05006KT 05/M08 A3033 RMK A01 T00451078  RH  040%=      5-min Rain = 0
KUM1 092331Z 05006KT 04/M08 A3033 RMK A01 T00441079  RH  040%=      5-min Rain = 0
KUM1 092332Z 05006KT 04/M08 A3033 RMK A01 T00431079  RH  041%=      5-min Rain = 0
KUM1 092333Z 04006KT 04/M08 A3033 RMK A01 T00421079  RH  041%=      5-min Rain = 0
KUM1 092334Z 05006KT 04/M08 A3033 RMK A01 T00401079  RH  041%=      5-min Rain = 0
KUM1 092335Z 05006KT 04/M08 A3033 RMK A01 T00381079  RH  042%=      5-min Rain = 0
KUM1 092336Z 05006KT 04/M08 A3033 RMK A01 T00371080  RH  042%=      5-min Rain = 0
KUM1 092337Z 06006KT 04/M08 A3033 RMK A01 T00361080  RH  043%=      5-min Rain = 0
KUM1 092338Z 06006KT 03/M08 A3033 RMK A01 T00341080  RH  043%=      5-min Rain = 0
KUM1 092339Z 06006KT 03/M08 A3033 RMK A01 T00341081  RH  043%=      5-min Rain = 0
KUM1 092340Z 06005KT 03/M08 A3033 RMK A01 T00331081  RH  043%=      5-min Rain = 0
KUM1 092341Z 06006KT 03/M08 A3033 RMK A01 T00331081  RH  043%=      5-min Rain = 0
KUM1 092342Z 05005KT 03/M08 A3033 RMK A01 T00331082  RH  043%=      5-min Rain = 0
KUM1 092343Z 06004KT 03/M08 A3033 RMK A01 T00321082  RH  043%=      5-min Rain = 0
KUM1 092344Z 06004KT 03/M08 A3033 RMK A01 T00321082  RH  043%=      5-min Rain = 0
KUM1 092345Z 06004KT 03/M08 A3033 RMK A01 T00321082  RH  043%=      5-min Rain = 0
KUM1 092346Z 06004KT 03/M08 A3033 RMK A01 T00321083  RH  043%=      5-min Rain = 0
KUM1 092347Z 06004KT 03/M08 A3033 RMK A01 T00331083  RH  042%=      5-min Rain = 0
KUM1 092348Z 06004KT 03/M08 A3033 RMK A01 T00341083  RH  042%=      5-min Rain = 0
KUM1 092349Z 06003KT 03/M08 A3033 RMK A01 T00341083  RH  042%=      5-min Rain = 0
KUM1 092350Z 06004KT 03/M08 A3033 RMK A01 T00341082  RH  042%=      5-min Rain = 0
KUM1 092351Z 06003KT 03/M08 A3033 RMK A01 T00331083  RH  042%=      5-min Rain = 0
KUM1 092352Z 07003KT 03/M08 A3033 RMK A01 T00341084  RH  042%=      5-min Rain = 0
KUM1 092353Z 07003KT 03/M09 A3033 RMK A01 T00341085  RH  041%=      5-min Rain = 0
KUM1 092354Z 07003KT 04/M09 A3033 RMK A01 T00361085  RH  041%=      5-min Rain = 0
KUM1 092355Z 08003KT 04/M09 A3033 RMK A01 T00381085  RH  040%=      5-min Rain = 0
KUM1 092356Z 08003KT 04/M09 A3033 RMK A01 T00391086  RH  040%=      5-min Rain = 0
KUM1 092357Z 08003KT 04/M09 A3033 RMK A01 T00401086  RH  039%=      5-min Rain = 0
KUM1 092358Z 08003KT 04/M09 A3033 RMK A01 T00411087  RH  039%=      5-min Rain = 0
KUM1 092359Z 07003KT 04/M09 A3033 RMK A01 T00411087  RH  039%=      5-min Rain = 0
KUM1 100000Z 07003KT 04/M09 A3033 RMK A01 T00421087  RH  039%=      5-min Rain = 0
KUM1 100001Z 07003KT 04/M09 A3033 RMK A01 T00431086  RH  039%=      5-min Rain = 0
KUM1 100002Z 07003KT 04/M09 A3033 RMK A01 T00431086  RH  039%=      5-min Rain = 0
KUM1 100003Z 07003KT 04/M09 A3033 RMK A01 T00431085  RH  039%=      5-min Rain = 0
KUM1 100004Z 07003KT 04/M08 A3033 RMK A01 T00441084  RH  039%=      5-min Rain = 0
KUM1 100005Z 06003KT 05/M08 A3034 RMK A01 T00451084  RH  039%=      5-min Rain = 0
KUM1 100006Z 06003KT 05/M08 A3034 RMK A01 T00451083  RH  039%=      5-min Rain = 0
KUM1 100007Z 06003KT 05/M08 A3034 RMK A01 T00461083  RH  039%=      5-min Rain = 0
KUM1 100008Z 05003KT 05/M08 A3034 RMK A01 T00451083  RH  039%=      5-min Rain = 0
KUM1 100009Z 05003KT 05/M08 A3034 RMK A01 T00451084  RH  039%=      5-min Rain = 0
KUM1 100010Z 05003KT 04/M09 A3034 RMK A01 T00441085  RH  039%=      5-min Rain = 0
KUM1 100011Z 05003KT 04/M09 A3034 RMK A01 T00431086  RH  039%=      5-min Rain = 0
KUM1 100012Z 05003KT 04/M09 A3034 RMK A01 T00421087  RH  039%=      5-min Rain = 0
KUM1 100013Z 05002KT 04/M09 A3034 RMK A01 T00421087  RH  039%=      5-min Rain = 0
KUM1 100014Z 05002KT 04/M09 A3034 RMK A01 T00411086  RH  039%=      5-min Rain = 0
KUM1 100015Z 05002KT 04/M09 A3034 RMK A01 T00411087  RH  039%=      5-min Rain = 0
KUM1 100016Z 05002KT 04/M09 A3034 RMK A01 T00401087  RH  039%=      5-min Rain = 0
KUM1 100017Z 05001KT 04/M09 A3034 RMK A01 T00391087  RH  039%=      5-min Rain = 0
KUM1 100018Z 05001KT 04/M09 A3034 RMK A01 T00381088  RH  039%=      5-min Rain = 0
KUM1 100019Z 05001KT 04/M09 A3034 RMK A01 T00381087  RH  040%=      5-min Rain = 0
KUM1 100020Z 05001KT 04/M09 A3034 RMK A01 T00371088  RH  040%=      5-min Rain = 0
KUM1 100021Z 05001KT 04/M09 A3034 RMK A01 T00361088  RH  040%=      5-min Rain = 0
KUM1 100022Z 05001KT 04/M09 A3034 RMK A01 T00361088  RH  040%=      5-min Rain = 0
KUM1 100023Z 05001KT 04/M09 A3034 RMK A01 T00351088  RH  040%=      5-min Rain = 0
KUM1 100024Z 05001KT 04/M09 A3034 RMK A01 T00351088  RH  040%=      5-min Rain = 0
KUM1 100025Z 05001KT 04/M09 A3034 RMK A01 T00361088  RH  040%=      5-min Rain = 0
KUM1 100026Z 05001KT 04/M09 A3035 RMK A01 T00361088  RH  040%=      5-min Rain = 0
KUM1 100027Z 05001KT 04/M09 A3035 RMK A01 T00361088  RH  040%=      5-min Rain = 0
KUM1 100028Z 05001KT 04/M09 A3035 RMK A01 T00351089  RH  040%=      5-min Rain = 0
KUM1 100029Z 05001KT 03/M09 A3035 RMK A01 T00341089  RH  040%=      5-min Rain = 0
KUM1 100030Z 05002KT 03/M09 A3034 RMK A01 T00341089  RH  040%=      5-min Rain = 0
KUM1 100031Z 05002KT 03/M09 A3034 RMK A01 T00331089  RH  040%=      5-min Rain = 0
KUM1 100032Z 06002KT 03/M09 A3034 RMK A01 T00321089  RH  041%=      5-min Rain = 0
KUM1 100033Z 06002KT 03/M09 A3034 RMK A01 T00311088  RH  041%=      5-min Rain = 0
KUM1 100034Z 06002KT 03/M09 A3035 RMK A01 T00291088  RH  042%=      5-min Rain = 0
KUM1 100035Z 06002KT 03/M09 A3035 RMK A01 T00291087  RH  042%=      5-min Rain = 0
KUM1 100036Z 06002KT 03/M09 A3035 RMK A01 T00291087  RH  042%=      5-min Rain = 0
KUM1 100037Z 06002KT 03/M09 A3035 RMK A01 T00291087  RH  042%=      5-min Rain = 0
KUM1 100038Z 06002KT 03/M09 A3035 RMK A01 T00291087  RH  042%=      5-min Rain = 0
KUM1 100039Z 06002KT 03/M09 A3035 RMK A01 T00301087  RH  042%=      5-min Rain = 0
KUM1 100040Z 06002KT 03/M09 A3035 RMK A01 T00301087  RH  042%=      5-min Rain = 0
KUM1 100041Z 06002KT 03/M09 A3035 RMK A01 T00301087  RH  042%=      5-min Rain = 0
KUM1 100042Z 06002KT 03/M09 A3035 RMK A01 T00301087  RH  042%=      5-min Rain = 0
KUM1 100043Z 06002KT 03/M09 A3035 RMK A01 T00301087  RH  042%=      5-min Rain = 0
KUM1 100044Z 06002KT 03/M09 A3035 RMK A01 T00301087  RH  042%=      5-min Rain = 0
KUM1 100045Z 06002KT 03/M09 A3035 RMK A01 T00301088  RH  042%=      5-min Rain = 0
KUM1 100046Z 06002KT 03/M09 A3035 RMK A01 T00291088  RH  042%=      5-min Rain = 0
KUM1 100047Z 06003KT 03/M09 A3035 RMK A01 T00291088  RH  042%=      5-min Rain = 0
KUM1 100048Z 06003KT 03/M09 A3035 RMK A01 T00281089  RH  042%=      5-min Rain = 0
KUM1 100049Z 06003KT 03/M09 A3035 RMK A01 T00291089  RH  042%=      5-min Rain = 0
KUM1 100050Z 06003KT 03/M09 A3035 RMK A01 T00291089  RH  041%=      5-min Rain = 0
KUM1 100051Z 06003KT 03/M09 A3035 RMK A01 T00301089  RH  041%=      5-min Rain = 0
KUM1 100052Z 06003KT 03/M09 A3035 RMK A01 T00301091  RH  041%=      5-min Rain = 0
KUM1 100053Z 06003KT 03/M09 A3035 RMK A01 T00321090  RH  040%=      5-min Rain = 0
KUM1 100054Z 06003KT 03/M09 A3035 RMK A01 T00331090  RH  040%=      5-min Rain = 0
KUM1 100055Z 06003KT 03/M09 A3035 RMK A01 T00331090  RH  040%=      5-min Rain = 0
KUM1 100056Z 06003KT 03/M09 A3035 RMK A01 T00331091  RH  040%=      5-min Rain = 0
KUM1 100057Z 06003KT 03/M09 A3035 RMK A01 T00331090  RH  040%=      5-min Rain = 0
KUM1 100058Z 06002KT 03/M09 A3035 RMK A01 T00331090  RH  040%=      5-min Rain = 0
KUM1 100059Z 06002KT 03/M09 A3035 RMK A01 T00321089  RH  041%=      5-min Rain = 0
KUM1 100100Z 06002KT 03/M09 A3035 RMK A01 T00311089  RH  041%=      5-min Rain = 0
KUM1 100101Z 06002KT 03/M09 A3035 RMK A01 T00301089  RH  041%=      5-min Rain = 0
KUM1 100102Z 06002KT 03/M09 A3035 RMK A01 T00281089  RH  042%=      5-min Rain = 0
KUM1 100103Z 05002KT 03/M09 A3035 RMK A01 T00271089  RH  042%=      5-min Rain = 0
KUM1 100104Z 05002KT 03/M09 A3035 RMK A01 T00261089  RH  042%=      5-min Rain = 0
KUM1 100105Z 05002KT 03/M09 A3035 RMK A01 T00261089  RH  042%=      5-min Rain = 0
KUM1 100106Z 05003KT 03/M09 A3035 RMK A01 T00261089  RH  042%=      5-min Rain = 0
KUM1 100107Z 05003KT 03/M09 A3035 RMK A01 T00261089  RH  042%=      5-min Rain = 0
KUM1 100108Z 05003KT 03/M09 A3035 RMK A01 T00261089  RH  042%=      5-min Rain = 0
KUM1 100109Z 05002KT 03/M09 A3035 RMK A01 T00261090  RH  042%=      5-min Rain = 0
KUM1 100110Z 04001KT 02/M09 A3036 RMK A01 T00241091  RH  042%=      5-min Rain = 0
KUM1 100111Z 03001KT 02/M09 A3036 RMK A01 T00201093  RH  043%=      5-min Rain = 0
KUM1 100112Z 02002KT 02/M09 A3036 RMK A01 T00201092  RH  043%=      5-min Rain = 0
KUM1 100113Z 02002KT 02/M09 A3036 RMK A01 T00221091  RH  043%=      5-min Rain = 0
KUM1 100114Z 02002KT 03/M09 A3036 RMK A01 T00251091  RH  042%=      5-min Rain = 0
KUM1 100115Z 01002KT 03/M09 A3036 RMK A01 T00261092  RH  042%=      5-min Rain = 0
KUM1 100116Z 01002KT 03/M09 A3036 RMK A01 T00261092  RH  041%=      5-min Rain = 0
KUM1 100117Z 01002KT 03/M09 A3036 RMK A01 T00261093  RH  041%=      5-min Rain = 0
KUM1 100118Z 00002KT 03/M09 A3036 RMK A01 T00261092  RH  041%=      5-min Rain = 0
KUM1 100119Z 00002KT 03/M09 A3036 RMK A01 T00261092  RH  041%=      5-min Rain = 0
KUM1 100120Z 00002KT 02/M09 A3036 RMK A01 T00221092  RH  043%=      5-min Rain = 0
KUM1 100121Z 01002KT 02/M09 A3036 RMK A01 T00161093  RH  044%=      5-min Rain = 0
KUM1 100122Z 01002KT 01/M09 A3036 RMK A01 T00141091  RH  046%=      5-min Rain = 0
KUM1 100123Z 01002KT 01/M09 A3036 RMK A01 T00111089  RH  047%=      5-min Rain = 0
KUM1 100124Z 02002KT 01/M09 A3036 RMK A01 T00091088  RH  048%=      5-min Rain = 0
KUM1 100125Z 04002KT 01/M09 A3036 RMK A01 T00091088  RH  048%=      5-min Rain = 0
KUM1 100126Z 04002KT 01/M09 A3036 RMK A01 T00101089  RH  048%=      5-min Rain = 0
KUM1 100127Z 05002KT 01/M09 A3036 RMK A01 T00141089  RH  046%=      5-min Rain = 0
KUM1 100128Z 05002KT 02/M09 A3036 RMK A01 T00151089  RH  046%=      5-min Rain = 0
KUM1 100129Z 05002KT 02/M09 A3036 RMK A01 T00161090  RH  045%=      5-min Rain = 0
KUM1 100130Z 05002KT 02/M09 A3036 RMK A01 T00171090  RH  045%=      5-min Rain = 0
KUM1 100131Z 05001KT 02/M09 A3036 RMK A01 T00171090  RH  045%=      5-min Rain = 0
KUM1 100132Z 05002KT 02/M09 A3036 RMK A01 T00171091  RH  044%=      5-min Rain = 0
KUM1 100133Z 05001KT 02/M09 A3036 RMK A01 T00171091  RH  044%=      5-min Rain = 0
KUM1 100134Z 05001KT 02/M09 A3036 RMK A01 T00181091  RH  044%=      5-min Rain = 0
KUM1 100135Z 05001KT 02/M09 A3036 RMK A01 T00191091  RH  044%=      5-min Rain = 0
KUM1 100136Z 05001KT 02/M09 A3036 RMK A01 T00191091  RH  044%=      5-min Rain = 0
KUM1 100137Z 05001KT 02/M09 A3036 RMK A01 T00191092  RH  044%=      5-min Rain = 0
KUM1 100138Z 05001KT 02/M09 A3036 RMK A01 T00191092  RH  044%=      5-min Rain = 0
KUM1 100139Z 05002KT 02/M09 A3036 RMK A01 T00211092  RH  043%=      5-min Rain = 0
KUM1 100140Z 05002KT 02/M09 A3036 RMK A01 T00221092  RH  043%=      5-min Rain = 0
KUM1 100141Z 05001KT 02/M09 A3036 RMK A01 T00211090  RH  044%=      5-min Rain = 0
KUM1 100142Z 05001KT 02/M09 A3036 RMK A01 T00181088  RH  045%=      5-min Rain = 0
KUM1 100143Z 05001KT 02/M09 A3036 RMK A01 T00161089  RH  046%=      5-min Rain = 0
KUM1 100144Z 05001KT 02/M09 A3036 RMK A01 T00161091  RH  045%=      5-min Rain = 0
KUM1 100145Z 05000KT 02/M09 A3036 RMK A01 T00181092  RH  044%=      5-min Rain = 0
KUM1 100146Z 00000KT 02/M09 A3036 RMK A01 T00201092  RH  043%=      5-min Rain = 0
KUM1 100147Z 00000KT 02/M09 A3036 RMK A01 T00221093  RH  043%=      5-min Rain = 0
KUM1 100148Z 00000KT 02/M09 A3036 RMK A01 T00221092  RH  043%=      5-min Rain = 0
KUM1 100149Z 00000KT 02/M09 A3036 RMK A01 T00231093  RH  042%=      5-min Rain = 0
KUM1 100150Z 05001KT 02/M09 A3036 RMK A01 T00221091  RH  043%=      5-min Rain = 0
KUM1 100151Z 05001KT 02/M09 A3036 RMK A01 T00201091  RH  044%=      5-min Rain = 0
KUM1 100152Z 05000KT 02/M09 A3036 RMK A01 T00181088  RH  045%=      5-min Rain = 0
KUM1 100153Z 04001KT 02/M09 A3036 RMK A01 T00151089  RH  046%=      5-min Rain = 0
KUM1 100154Z 03001KT 02/M09 A3036 RMK A01 T00161089  RH  046%=      5-min Rain = 0
KUM1 100155Z 35002KT 02/M09 A3036 RMK A01 T00161085  RH  047%=      5-min Rain = 0
KUM1 100156Z 34005KT 01/M08 A3036 RMK A01 T00121083  RH  049%=      5-min Rain = 0
KUM1 100157Z 35006KT 00/M09 A3036 RMK A01 T00031087  RH  051%=      5-min Rain = 0
KUM1 100158Z 36004KT M00/M09 A3036 RMK A01 T10041088  RH  053%=      5-min Rain = 0
KUM1 100159Z 00004KT M01/M09 A3036 RMK A01 T10061088  RH  054%=      5-min Rain = 0
KUM1 100200Z 00004KT M01/M09 A3036 RMK A01 T10071087  RH  054%=      5-min Rain = 0
KUM1 100201Z 35005KT M01/M09 A3036 RMK A01 T10061087  RH  054%=      5-min Rain = 0
KUM1 100202Z 34005KT M01/M09 A3036 RMK A01 T10081087  RH  055%=      5-min Rain = 0
KUM1 100203Z 34005KT M01/M09 A3036 RMK A01 T10101088  RH  056%=      5-min Rain = 0
KUM1 100204Z 34005KT M01/M09 A3036 RMK A01 T10121087  RH  057%=      5-min Rain = 0
KUM1 100205Z 34005KT M01/M09 A3036 RMK A01 T10131086  RH  057%=      5-min Rain = 0
KUM1 100206Z 35006KT M02/M09 A3036 RMK A01 T10151086  RH  058%=      5-min Rain = 0
KUM1 100207Z 35007KT M01/M09 A3036 RMK A01 T10141085  RH  059%=      5-min Rain = 0
KUM1 100208Z 35007KT M02/M08 A3036 RMK A01 T10151084  RH  059%=      5-min Rain = 0
KUM1 100209Z 35006KT M02/M08 A3036 RMK A01 T10161084  RH  060%=      5-min Rain = 0
KUM1 100210Z 00006KT M02/M08 A3036 RMK A01 T10171084  RH  060%=      5-min Rain = 0
KUM1 100211Z 00006KT M02/M08 A3036 RMK A01 T10191084  RH  061%=      5-min Rain = 0
KUM1 100212Z 00006KT M02/M08 A3036 RMK A01 T10191084  RH  061%=      5-min Rain = 0
KUM1 100213Z 00006KT M02/M08 A3036 RMK A01 T10181083  RH  061%=      5-min Rain = 0
KUM1 100214Z 35006KT M02/M08 A3036 RMK A01 T10171083  RH  061%=      5-min Rain = 0
KUM1 100215Z 35007KT M02/M08 A3036 RMK A01 T10171083  RH  061%=      5-min Rain = 0
KUM1 100216Z 35006KT M02/M08 A3037 RMK A01 T10181084  RH  061%=      5-min Rain = 0
KUM1 100217Z 36007KT M02/M09 A3037 RMK A01 T10191085  RH  061%=      5-min Rain = 0
KUM1 100218Z 35006KT M02/M09 A3037 RMK A01 T10191085  RH  061%=      5-min Rain = 0
KUM1 100219Z 35007KT M02/M09 A3037 RMK A01 T10191086  RH  060%=      5-min Rain = 0
KUM1 100220Z 35007KT M02/M09 A3037 RMK A01 T10181085  RH  060%=      5-min Rain = 0
KUM1 100221Z 35006KT M02/M09 A3037 RMK A01 T10181085  RH  060%=      5-min Rain = 0
KUM1 100222Z 35006KT M02/M09 A3037 RMK A01 T10181085  RH  060%=      5-min Rain = 0
KUM1 100223Z 35006KT M02/M09 A3037 RMK A01 T10181085  RH  060%=      5-min Rain = 0
KUM1 100224Z 35006KT M02/M09 A3037 RMK A01 T10191086  RH  060%=      5-min Rain = 0
KUM1 100225Z 35007KT M02/M09 A3037 RMK A01 T10201086  RH  061%=      5-min Rain = 0
KUM1 100226Z 35007KT M02/M09 A3037 RMK A01 T10211086  RH  061%=      5-min Rain = 0
KUM1 100227Z 35007KT M02/M09 A3037 RMK A01 T10211085  RH  062%=      5-min Rain = 0
KUM1 100228Z 35008KT M02/M08 A3037 RMK A01 T10221084  RH  063%=      5-min Rain = 0
KUM1 100229Z 36008KT M02/M08 A3037 RMK A01 T10211083  RH  063%=      5-min Rain = 0
KUM1 100230Z 00007KT M02/M08 A3037 RMK A01 T10211082  RH  063%=      5-min Rain = 0
KUM1 100231Z 00007KT M02/M08 A3037 RMK A01 T10191081  RH  063%=      5-min Rain = 0
KUM1 100232Z 36007KT M02/M08 A3037 RMK A01 T10171080  RH  062%=      5-min Rain = 0
KUM1 100233Z 36007KT M02/M08 A3037 RMK A01 T10161080  RH  062%=      5-min Rain = 0
KUM1 100234Z 00007KT M02/M08 A3037 RMK A01 T10151079  RH  062%=      5-min Rain = 0
KUM1 100235Z 00007KT M01/M08 A3037 RMK A01 T10141079  RH  061%=      5-min Rain = 0
KUM1 100236Z 00007KT M01/M08 A3037 RMK A01 T10131079  RH  061%=      5-min Rain = 0
KUM1 100237Z 00007KT M01/M08 A3037 RMK A01 T10121079  RH  061%=      5-min Rain = 0
KUM1 100238Z 00007KT M01/M08 A3037 RMK A01 T10121079  RH  060%=      5-min Rain = 0
KUM1 100239Z 00006KT M01/M08 A3037 RMK A01 T10111079  RH  060%=      5-min Rain = 0
KUM1 100240Z 00006KT M01/M08 A3037 RMK A01 T10101079  RH  060%=      5-min Rain = 0
KUM1 100241Z 01005KT M01/M08 A3037 RMK A01 T10091079  RH  059%=      5-min Rain = 0
KUM1 100242Z 01005KT M01/M08 A3037 RMK A01 T10091079  RH  059%=      5-min Rain = 0
KUM1 100243Z 01005KT M01/M08 A3037 RMK A01 T10081078  RH  059%=      5-min Rain = 0
KUM1 100244Z 01004KT M01/M08 A3036 RMK A01 T10091078  RH  059%=      5-min Rain = 0
KUM1 100245Z 02004KT M01/M08 A3036 RMK A01 T10081078  RH  059%=      5-min Rain = 0
KUM1 100246Z 01004KT M01/M08 A3037 RMK A01 T10081078  RH  059%=      5-min Rain = 0
KUM1 100247Z 02004KT M01/M08 A3037 RMK A01 T10071078  RH  059%=      5-min Rain = 0
KUM1 100248Z 01004KT M01/M08 A3037 RMK A01 T10071078  RH  059%=      5-min Rain = 0
KUM1 100249Z 00004KT M01/M08 A3037 RMK A01 T10061078  RH  058%=      5-min Rain = 0
KUM1 100250Z 01005KT M01/M08 A3037 RMK A01 T10061079  RH  058%=      5-min Rain = 0
KUM1 100251Z 01005KT M01/M08 A3037 RMK A01 T10061078  RH  058%=      5-min Rain = 0
KUM1 100252Z 01005KT M01/M08 A3037 RMK A01 T10081079  RH  058%=      5-min Rain = 0
KUM1 100253Z 02005KT M01/M08 A3037 RMK A01 T10101080  RH  059%=      5-min Rain = 0
KUM1 100254Z 02005KT M01/M08 A3037 RMK A01 T10121079  RH  060%=      5-min Rain = 0
KUM1 100255Z 02005KT M01/M08 A3037 RMK A01 T10131079  RH  061%=      5-min Rain = 0
KUM1 100256Z 02005KT M01/M08 A3037 RMK A01 T10131079  RH  061%=      5-min Rain = 0
KUM1 100257Z 02005KT M01/M08 A3037 RMK A01 T10121078  RH  061%=      5-min Rain = 0
KUM1 100258Z 02004KT M01/M08 A3037 RMK A01 T10111078  RH  060%=      5-min Rain = 0
KUM1 100259Z 02004KT M01/M08 A3037 RMK A01 T10111078  RH  060%=      5-min Rain = 0
KUM1 100300Z 02004KT M01/M08 A3037 RMK A01 T10121079  RH  060%=      5-min Rain = 0
KUM1 100301Z 01004KT M01/M08 A3037 RMK A01 T10141080  RH  060%=      5-min Rain = 0
KUM1 100302Z 00004KT M01/M08 A3037 RMK A01 T10141080  RH  061%=      5-min Rain = 0
KUM1 100303Z 36004KT M01/M08 A3037 RMK A01 T10141079  RH  061%=      5-min Rain = 0
KUM1 100304Z 35003KT M01/M08 A3037 RMK A01 T10141079  RH  061%=      5-min Rain = 0
KUM1 100305Z 34003KT M01/M08 A3037 RMK A01 T10141078  RH  061%=      5-min Rain = 0
KUM1 100306Z 34003KT M01/M08 A3037 RMK A01 T10111076  RH  061%=      5-min Rain = 0
KUM1 100307Z 34004KT M01/M07 A3037 RMK A01 T10061073  RH  060%=      5-min Rain = 0
KUM1 100308Z 33004KT M01/M08 A3037 RMK A01 T10051075  RH  059%=      5-min Rain = 0
KUM1 100309Z 34003KT M01/M08 A3037 RMK A01 T10051076  RH  059%=      5-min Rain = 0
KUM1 100310Z 34003KT M01/M08 A3037 RMK A01 T10061076  RH  059%=      5-min Rain = 0
KUM1 100311Z 34004KT M01/M08 A3037 RMK A01 T10051075  RH  059%=      5-min Rain = 0
KUM1 100312Z 34004KT M00/M08 A3037 RMK A01 T10041075  RH  059%=      5-min Rain = 0
KUM1 100313Z 34004KT M00/M07 A3037 RMK A01 T10021073  RH  059%=      5-min Rain = 0
KUM1 100314Z 35004KT M00/M07 A3037 RMK A01 T10021074  RH  058%=      5-min Rain = 0
KUM1 100315Z 35004KT M00/M08 A3037 RMK A01 T10021075  RH  058%=      5-min Rain = 0
KUM1 100316Z 35004KT M00/M08 A3037 RMK A01 T10031076  RH  058%=      5-min Rain = 0
KUM1 100317Z 35004KT M01/M08 A3037 RMK A01 T10051075  RH  059%=      5-min Rain = 0
KUM1 100318Z 00003KT M01/M07 A3037 RMK A01 T10061074  RH  060%=      5-min Rain = 0
KUM1 100319Z 00003KT M01/M08 A3037 RMK A01 T10071075  RH  060%=      5-min Rain = 0
KUM1 100320Z 00003KT M01/M08 A3036 RMK A01 T10101077  RH  060%=      5-min Rain = 0
KUM1 100321Z 01003KT M01/M08 A3036 RMK A01 T10121077  RH  061%=      5-min Rain = 0
KUM1 100322Z 01003KT M01/M08 A3036 RMK A01 T10121076  RH  062%=      5-min Rain = 0
KUM1 100323Z 00003KT M01/M08 A3036 RMK A01 T10121075  RH  062%=      5-min Rain = 0
KUM1 100324Z 00003KT M01/M08 A3037 RMK A01 T10121075  RH  063%=      5-min Rain = 0
KUM1 100325Z 00003KT M01/M07 A3037 RMK A01 T10131074  RH  063%=      5-min Rain = 0
KUM1 100326Z 00003KT M01/M07 A3037 RMK A01 T10121073  RH  064%=      5-min Rain = 0
KUM1 100327Z 00003KT M01/M07 A3037 RMK A01 T10121070  RH  064%=      5-min Rain = 0
KUM1 100328Z 00003KT M01/M07 A3037 RMK A01 T10111068  RH  065%=      5-min Rain = 0
KUM1 100329Z 00003KT M01/M07 A3037 RMK A01 T10111074  RH  062%=      5-min Rain = 0
KUM1 100330Z 01003KT M01/M07 A3037 RMK A01 T10091074  RH  061%=      5-min Rain = 0
KUM1 100331Z 01004KT M01/M08 A3037 RMK A01 T10071075  RH  060%=      5-min Rain = 0
KUM1 100332Z 01004KT M01/M08 A3037 RMK A01 T10061076  RH  059%=      5-min Rain = 0
KUM1 100333Z 01004KT M01/M08 A3037 RMK A01 T10071079  RH  058%=      5-min Rain = 0
KUM1 100334Z 01004KT M01/M08 A3037 RMK A01 T10091080  RH  058%=      5-min Rain = 0
KUM1 100335Z 01004KT M01/M08 A3037 RMK A01 T10121083  RH  059%=      5-min Rain = 0
KUM1 100336Z 00004KT M02/M08 A3037 RMK A01 T10151083  RH  060%=      5-min Rain = 0
KUM1 100337Z 01004KT M01/M08 A3037 RMK A01 T10141081  RH  061%=      5-min Rain = 0
KUM1 100338Z 01004KT M01/M08 A3037 RMK A01 T10121078  RH  061%=      5-min Rain = 0
KUM1 100339Z 00004KT M01/M08 A3037 RMK A01 T10121080  RH  060%=      5-min Rain = 0
KUM1 100340Z 00003KT M02/M08 A3037 RMK A01 T10151082  RH  060%=      5-min Rain = 0
KUM1 100341Z 00003KT M02/M09 A3037 RMK A01 T10181085  RH  060%=      5-min Rain = 0
KUM1 100342Z 00003KT M02/M09 A3037 RMK A01 T10211085  RH  062%=      5-min Rain = 0
KUM1 100343Z 00003KT M02/M08 A3037 RMK A01 T10231084  RH  063%=      5-min Rain = 0
KUM1 100344Z 00003KT M02/M08 A3037 RMK A01 T10231083  RH  063%=      5-min Rain = 0
KUM1 100345Z 00003KT M02/M08 A3037 RMK A01 T10231083  RH  064%=      5-min Rain = 0
KUM1 100346Z 00003KT M02/M08 A3037 RMK A01 T10231083  RH  064%=      5-min Rain = 0
KUM1 100347Z 00003KT M03/M08 A3037 RMK A01 T10251084  RH  064%=      5-min Rain = 0
KUM1 100348Z 00003KT M03/M09 A3037 RMK A01 T10271086  RH  064%=      5-min Rain = 0
KUM1 100349Z 00003KT M03/M09 A3037 RMK A01 T10291085  RH  065%=      5-min Rain = 0
KUM1 100350Z 00003KT M03/M09 A3037 RMK A01 T10301085  RH  066%=      5-min Rain = 0
KUM1 100351Z 36003KT M03/M09 A3037 RMK A01 T10311085  RH  066%=      5-min Rain = 0
KUM1 100352Z 35004KT M03/M08 A3037 RMK A01 T10321084  RH  067%=      5-min Rain = 0
KUM1 100353Z 35004KT M03/M08 A3037 RMK A01 T10331084  RH  068%=      5-min Rain = 0
KUM1 100354Z 35003KT M03/M08 A3037 RMK A01 T10331083  RH  069%=      5-min Rain = 0
KUM1 100355Z 35003KT M03/M08 A3037 RMK A01 T10341082  RH  069%=      5-min Rain = 0
KUM1 100356Z 35003KT M03/M08 A3037 RMK A01 T10341082  RH  070%=      5-min Rain = 0
KUM1 100357Z 34003KT M03/M08 A3037 RMK A01 T10341081  RH  070%=      5-min Rain = 0
KUM1 100358Z 34003KT M03/M08 A3037 RMK A01 T10341080  RH  070%=      5-min Rain = 0
KUM1 100359Z 33003KT M03/M08 A3037 RMK A01 T10341081  RH  070%=      5-min Rain = 0
KUM1 100400Z 33003KT M03/M08 A3037 RMK A01 T10341082  RH  069%=      5-min Rain = 0
KUM1 100401Z 33003KT M03/M08 A3037 RMK A01 T10341083  RH  069%=      5-min Rain = 0
KUM1 100402Z 33003KT M04/M08 A3037 RMK A01 T10351083  RH  069%=      5-min Rain = 0
KUM1 100403Z 33003KT M04/M08 A3037 RMK A01 T10351083  RH  070%=      5-min Rain = 0
KUM1 100404Z 33003KT M04/M08 A3037 RMK A01 T10351083  RH  070%=      5-min Rain = 0
KUM1 100405Z 32003KT M04/M08 A3037 RMK A01 T10351082  RH  070%=      5-min Rain = 0
KUM1 100406Z 32003KT M04/M08 A3037 RMK A01 T10351082  RH  070%=      5-min Rain = 0
KUM1 100407Z 31003KT M04/M08 A3037 RMK A01 T10351082  RH  070%=      5-min Rain = 0
KUM1 100408Z 31003KT M04/M08 A3037 RMK A01 T10361083  RH  070%=      5-min Rain = 0
KUM1 100409Z 31003KT M04/M08 A3037 RMK A01 T10371084  RH  070%=      5-min Rain = 0
KUM1 100410Z 31003KT M04/M08 A3037 RMK A01 T10381084  RH  070%=      5-min Rain = 0
KUM1 100411Z 31003KT M04/M09 A3037 RMK A01 T10391085  RH  071%=      5-min Rain = 0
KUM1 100412Z 30004KT M04/M09 A3037 RMK A01 T10401085  RH  071%=      5-min Rain = 0
KUM1 100413Z 30004KT M04/M09 A3037 RMK A01 T10411086  RH  071%=      5-min Rain = 0
KUM1 100414Z 30004KT M04/M09 A3037 RMK A01 T10421086  RH  071%=      5-min Rain = 0
KUM1 100415Z 30004KT M04/M09 A3037 RMK A01 T10431087  RH  072%=      5-min Rain = 0
KUM1 100416Z 30004KT M04/M09 A3037 RMK A01 T10441086  RH  072%=      5-min Rain = 0
KUM1 100417Z 30004KT M04/M09 A3037 RMK A01 T10441086  RH  073%=      5-min Rain = 0
KUM1 100418Z 30004KT M04/M09 A3037 RMK A01 T10441085  RH  073%=      5-min Rain = 0
KUM1 100419Z 31004KT M04/M09 A3037 RMK A01 T10441086  RH  073%=      5-min Rain = 0
KUM1 100420Z 31003KT M05/M09 A3037 RMK A01 T10451086  RH  073%=      5-min Rain = 0
KUM1 100421Z 31004KT M05/M09 A3037 RMK A01 T10461086  RH  073%=      5-min Rain = 0
KUM1 100422Z 31004KT M05/M09 A3037 RMK A01 T10461086  RH  074%=      5-min Rain = 0
KUM1 100423Z 31004KT M05/M09 A3037 RMK A01 T10461085  RH  074%=      5-min Rain = 0
KUM1 100424Z 31004KT M05/M09 A3037 RMK A01 T10461085  RH  074%=      5-min Rain = 0
KUM1 100425Z 31004KT M05/M09 A3037 RMK A01 T10461085  RH  074%=      5-min Rain = 0
KUM1 100426Z 31004KT M05/M09 A3037 RMK A01 T10471086  RH  074%=      5-min Rain = 0
KUM1 100427Z 31004KT M05/M09 A3037 RMK A01 T10481086  RH  075%=      5-min Rain = 0
KUM1 100428Z 30004KT M05/M09 A3037 RMK A01 T10491087  RH  075%=      5-min Rain = 0
KUM1 100429Z 30004KT M05/M09 A3037 RMK A01 T10501088  RH  075%=      5-min Rain = 0
KUM1 100430Z 30004KT M05/M09 A3037 RMK A01 T10511088  RH  076%=      5-min Rain = 0
KUM1 100431Z 30004KT M05/M09 A3037 RMK A01 T10511087  RH  076%=      5-min Rain = 0
KUM1 100432Z 30003KT M05/M09 A3037 RMK A01 T10521087  RH  076%=      5-min Rain = 0
KUM1 100433Z 30003KT M05/M09 A3037 RMK A01 T10521087  RH  076%=      5-min Rain = 0
KUM1 100434Z 30003KT M05/M09 A3037 RMK A01 T10521087  RH  076%=      5-min Rain = 0
KUM1 100435Z 30003KT M05/M09 A3037 RMK A01 T10521087  RH  076%=      5-min Rain = 0
KUM1 100436Z 30003KT M05/M09 A3037 RMK A01 T10521088  RH  076%=      5-min Rain = 0
KUM1 100437Z 30003KT M05/M09 A3037 RMK A01 T10511087  RH  076%=      5-min Rain = 0
KUM1 100438Z 30004KT M05/M09 A3037 RMK A01 T10521087  RH  076%=      5-min Rain = 0
KUM1 100439Z 30004KT M05/M09 A3037 RMK A01 T10521087  RH  076%=      5-min Rain = 0
KUM1 100440Z 30004KT M05/M09 A3037 RMK A01 T10501086  RH  076%=      5-min Rain = 0
KUM1 100441Z 30004KT M05/M09 A3037 RMK A01 T10491085  RH  076%=      5-min Rain = 0
KUM1 100442Z 29004KT M05/M09 A3037 RMK A01 T10481085  RH  075%=      5-min Rain = 0
KUM1 100443Z 29004KT M05/M09 A3037 RMK A01 T10481086  RH  075%=      5-min Rain = 0
KUM1 100444Z 29003KT M05/M09 A3037 RMK A01 T10481086  RH  075%=      5-min Rain = 0
KUM1 100445Z 29003KT M05/M09 A3037 RMK A01 T10471086  RH  074%=      5-min Rain = 0
KUM1 100446Z 29003KT M05/M09 A3037 RMK A01 T10471085  RH  074%=      5-min Rain = 0
KUM1 100447Z 29003KT M05/M09 A3037 RMK A01 T10461085  RH  074%=      5-min Rain = 0
KUM1 100448Z 29003KT M05/M09 A3037 RMK A01 T10461086  RH  074%=      5-min Rain = 0
KUM1 100449Z 29003KT M05/M09 A3037 RMK A01 T10461086  RH  074%=      5-min Rain = 0
KUM1 100450Z 29003KT M05/M09 A3037 RMK A01 T10461087  RH  073%=      5-min Rain = 0
KUM1 100451Z 29003KT M05/M09 A3037 RMK A01 T10461087  RH  073%=      5-min Rain = 0
KUM1 100452Z 29003KT M05/M09 A3037 RMK A01 T10461087  RH  073%=      5-min Rain = 0
KUM1 100453Z 29002KT M05/M09 A3037 RMK A01 T10471087  RH  074%=      5-min Rain = 0
KUM1 100454Z 29002KT M05/M09 A3037 RMK A01 T10471086  RH  074%=      5-min Rain = 0
KUM1 100455Z 30002KT M05/M09 A3037 RMK A01 T10461086  RH  074%=      5-min Rain = 0
KUM1 100456Z 30003KT M05/M09 A3037 RMK A01 T10461086  RH  073%=      5-min Rain = 0
KUM1 100457Z 30003KT M05/M09 A3037 RMK A01 T10461086  RH  073%=      5-min Rain = 0
KUM1 100458Z 30003KT M05/M09 A3037 RMK A01 T10461086  RH  073%=      5-min Rain = 0
KUM1 100459Z 30003KT M05/M09 A3037 RMK A01 T10451085  RH  073%=      5-min Rain = 0
KUM1 100500Z 30003KT M04/M09 A3037 RMK A01 T10441085  RH  073%=      5-min Rain = 0
KUM1 100501Z 30004KT M04/M09 A3037 RMK A01 T10431085  RH  073%=      5-min Rain = 0
KUM1 100502Z 30004KT M04/M09 A3037 RMK A01 T10431086  RH  072%=      5-min Rain = 0
KUM1 100503Z 30004KT M04/M09 A3037 RMK A01 T10431086  RH  072%=      5-min Rain = 0
KUM1 100504Z 30004KT M04/M09 A3037 RMK A01 T10431085  RH  073%=      5-min Rain = 0
KUM1 100505Z 30003KT M04/M08 A3037 RMK A01 T10441084  RH  073%=      5-min Rain = 0
KUM1 100506Z 30003KT M04/M09 A3037 RMK A01 T10441085  RH  073%=      5-min Rain = 0
KUM1 100507Z 30004KT M05/M09 A3037 RMK A01 T10461086  RH  074%=      5-min Rain = 0
KUM1 100508Z 30004KT M05/M09 A3037 RMK A01 T10481088  RH  074%=      5-min Rain = 0
KUM1 100509Z 29004KT M05/M09 A3037 RMK A01 T10491088  RH  074%=      5-min Rain = 0
KUM1 100510Z 29004KT M05/M09 A3037 RMK A01 T10491087  RH  074%=      5-min Rain = 0
KUM1 100511Z 29004KT M05/M09 A3037 RMK A01 T10491087  RH  075%=      5-min Rain = 0
KUM1 100512Z 29004KT M05/M09 A3037 RMK A01 T10491086  RH  075%=      5-min Rain = 0
KUM1 100513Z 29005KT M05/M09 A3037 RMK A01 T10491086  RH  076%=      5-min Rain = 0
KUM1 100514Z 29005KT M05/M09 A3037 RMK A01 T10491085  RH  076%=      5-min Rain = 0
KUM1 100515Z 29005KT M05/M08 A3037 RMK A01 T10481083  RH  077%=      5-min Rain = 0
KUM1 100516Z 28005KT M05/M08 A3037 RMK A01 T10471082  RH  077%=      5-min Rain = 0
KUM1 100517Z 28005KT M05/M08 A3037 RMK A01 T10471082  RH  076%=      5-min Rain = 0
KUM1 100518Z 28005KT M05/M08 A3037 RMK A01 T10461082  RH  076%=      5-min Rain = 0
KUM1 100519Z 29005KT M05/M08 A3037 RMK A01 T10461083  RH  075%=      5-min Rain = 0
KUM1 100520Z 29005KT M05/M08 A3037 RMK A01 T10461083  RH  075%=      5-min Rain = 0
KUM1 100521Z 29005KT M05/M08 A3037 RMK A01 T10461083  RH  075%=      5-min Rain = 0
KUM1 100522Z 29005KT M05/M08 A3037 RMK A01 T10461083  RH  075%=      5-min Rain = 0
KUM1 100523Z 29005KT M05/M08 A3037 RMK A01 T10451083  RH  075%=      5-min Rain = 0
KUM1 100524Z 29005KT M05/M08 A3037 RMK A01 T10461084  RH  075%=      5-min Rain = 0
KUM1 100525Z 29004KT M05/M09 A3037 RMK A01 T10471086  RH  075%=      5-min Rain = 0
KUM1 100526Z 29004KT M05/M09 A3037 RMK A01 T10491087  RH  075%=      5-min Rain = 0
KUM1 100527Z 29004KT M05/M09 A3037 RMK A01 T10501088  RH  075%=      5-min Rain = 0
KUM1 100528Z 29004KT M05/M09 A3037 RMK A01 T10501087  RH  075%=      5-min Rain = 0
KUM1 100529Z 29004KT M05/M09 A3037 RMK A01 T10511088  RH  076%=      5-min Rain = 0
KUM1 100530Z 29004KT M05/M09 A3037 RMK A01 T10521087  RH  076%=      5-min Rain = 0
KUM1 100531Z 29004KT M05/M09 A3037 RMK A01 T10521087  RH  076%=      5-min Rain = 0
KUM1 100532Z 29004KT M05/M09 A3037 RMK A01 T10521087  RH  076%=      5-min Rain = 0
KUM1 100533Z 29004KT M05/M09 A3037 RMK A01 T10521087  RH  076%=      5-min Rain = 0
KUM1 100534Z 29004KT M05/M09 A3037 RMK A01 T10521087  RH  076%=      5-min Rain = 0
KUM1 100535Z 28004KT M05/M09 A3037 RMK A01 T10531088  RH  077%=      5-min Rain = 0
KUM1 100536Z 28004KT M05/M09 A3037 RMK A01 T10541088  RH  077%=      5-min Rain = 0
KUM1 100537Z 28004KT M06/M09 A3037 RMK A01 T10551089  RH  077%=      5-min Rain = 0
KUM1 100538Z 28005KT M06/M09 A3037 RMK A01 T10551088  RH  078%=      5-min Rain = 0
KUM1 100539Z 28004KT M05/M09 A3037 RMK A01 T10541087  RH  078%=      5-min Rain = 0
KUM1 100540Z 27004KT M05/M09 A3037 RMK A01 T10521085  RH  078%=      5-min Rain = 0
KUM1 100541Z 27004KT M05/M08 A3037 RMK A01 T10511084  RH  078%=      5-min Rain = 0
KUM1 100542Z 27005KT M05/M08 A3037 RMK A01 T10501084  RH  077%=      5-min Rain = 0
KUM1 100543Z 27005KT M05/M08 A3037 RMK A01 T10501084  RH  077%=      5-min Rain = 0
KUM1 100544Z 27005KT M05/M08 A3037 RMK A01 T10491084  RH  077%=      5-min Rain = 0
KUM1 100545Z 27005KT M05/M08 A3037 RMK A01 T10481083  RH  077%=      5-min Rain = 0
KUM1 100546Z 27005KT M05/M08 A3037 RMK A01 T10481083  RH  076%=      5-min Rain = 0
KUM1 100547Z 27005KT M05/M08 A3037 RMK A01 T10461082  RH  076%=      5-min Rain = 0
KUM1 100548Z 27005KT M05/M08 A3037 RMK A01 T10451082  RH  076%=      5-min Rain = 0
KUM1 100549Z 26004KT M04/M08 A3037 RMK A01 T10441081  RH  076%=      5-min Rain = 0
KUM1 100550Z 25004KT M04/M08 A3037 RMK A01 T10431080  RH  076%=      5-min Rain = 0
KUM1 100551Z 25004KT M04/M08 A3037 RMK A01 T10421079  RH  075%=      5-min Rain = 0
KUM1 100552Z 23005KT M04/M08 A3037 RMK A01 T10411079  RH  075%=      5-min Rain = 0
KUM1 100553Z 24005KT M04/M08 A3037 RMK A01 T10421080  RH  075%=      5-min Rain = 0
KUM1 100554Z 24004KT M04/M08 A3037 RMK A01 T10441082  RH  075%=      5-min Rain = 0
KUM1 100555Z 24004KT M05/M08 A3037 RMK A01 T10471084  RH  075%=      5-min Rain = 0
KUM1 100556Z 23004KT M05/M08 A3037 RMK A01 T10491084  RH  076%=      5-min Rain = 0
KUM1 100557Z 23004KT M05/M09 A3037 RMK A01 T10511085  RH  077%=      5-min Rain = 0
KUM1 100558Z 23005KT M05/M09 A3037 RMK A01 T10531086  RH  077%=      5-min Rain = 0
KUM1 100559Z 22005KT M05/M09 A3037 RMK A01 T10541086  RH  078%=      5-min Rain = 0

Page generated in 0.1599 seconds.